Wetterdaten: Mittwoch, 19.12.2018
Datum Zeit Temp. Aussen Temp. o. S. +5cm Feuchte Auss Luftdruck Regen Sonnenschein Regendauer Solar Windben Empfang
19.12.2018 00:00 5,2 C 4,4 C 3,9 C 85 % 1009,7 hPa 0,0 l/m 0 min 0 min 0 W/m 25,7 km/h (4 Bft) 85,11 %
19.12.2018 00:02 5,2 C 5,0 C 3,9 C 85 % 1009,9 hPa 0,0 l/m 0 min 0 min 0 W/m 19,3 km/h (3 Bft) 12,50 %
19.12.2018 00:04 5,2 C 5,0 C 3,9 C 85 % 1010,0 hPa 0,0 l/m 0 min 0 min 0 W/m 35,4 km/h (5 Bft) 66,67 %
19.12.2018 00:07 5,2 C 5,0 C 3,9 C 85 % 1009,8 hPa 0,0 l/m 0 min 0 min 0 W/m 41,8 km/h (6 Bft) 85,37 %
19.12.2018 00:08 5,2 C 5,0 C 3,9 C 85 % 1009,8 hPa 0,0 l/m 0 min 0 min 0 W/m 19,3 km/h (3 Bft) 81,82 %
19.12.2018 00:10 5,2 C 5,0 C 3,9 C 84 % 1009,9 hPa 0,0 l/m 0 min 0 min 0 W/m 25,7 km/h (4 Bft) 87,23 %
19.12.2018 00:12 5,2 C 5,0 C 3,9 C 84 % 1009,8 hPa 0,0 l/m 0 min 0 min 0 W/m 45,1 km/h (6 Bft) 91,49 %
19.12.2018 00:14 5,2 C 4,4 C 3,9 C 84 % 1009,8 hPa 0,0 l/m 0 min 0 min 0 W/m 25,7 km/h (4 Bft) 87,23 %
19.12.2018 00:16 5,2 C 5,0 C 3,9 C 84 % 1009,6 hPa 0,0 l/m 0 min 0 min 0 W/m 35,4 km/h (5 Bft) 89,36 %
19.12.2018 00:18 5,2 C 5,0 C 3,9 C 84 % 1009,6 hPa 0,0 l/m 0 min 0 min 0 W/m 29,0 km/h (5 Bft) 89,36 %
19.12.2018 00:20 5,2 C 5,0 C 3,9 C 84 % 1009,7 hPa 0,0 l/m 0 min 0 min 0 W/m 25,7 km/h (4 Bft) 89,13 %
19.12.2018 00:22 5,2 C 5,0 C 3,9 C 84 % 1009,5 hPa 0,0 l/m 0 min 0 min 0 W/m 25,7 km/h (4 Bft) 91,49 %
19.12.2018 00:24 5,2 C 5,0 C 3,9 C 84 % 1009,6 hPa 0,0 l/m 0 min 0 min 0 W/m 29,0 km/h (5 Bft) 89,36 %
19.12.2018 00:26 5,2 C 5,0 C 3,9 C 84 % 1009,5 hPa 0,0 l/m 0 min 0 min 0 W/m 29,0 km/h (5 Bft) 89,36 %
19.12.2018 00:28 5,2 C 5,0 C 3,9 C 84 % 1009,5 hPa 0,0 l/m 0 min 0 min 0 W/m 29,0 km/h (5 Bft) 89,36 %
19.12.2018 00:30 5,3 C 5,0 C 3,9 C 84 % 1009,5 hPa 0,0 l/m 0 min 0 min 0 W/m 32,2 km/h (5 Bft) 86,96 %
19.12.2018 00:32 5,3 C 5,0 C 3,9 C 83 % 1009,4 hPa 0,0 l/m 0 min 0 min 0 W/m 35,4 km/h (5 Bft) 87,23 %
19.12.2018 00:34 5,3 C 5,0 C 3,9 C 83 % 1009,7 hPa 0,0 l/m 0 min 0 min 0 W/m 29,0 km/h (5 Bft) 91,49 %
19.12.2018 00:36 5,4 C 5,0 C 3,9 C 83 % 1009,4 hPa 0,0 l/m 0 min 0 min 0 W/m 29,0 km/h (5 Bft) 88,14 %
19.12.2018 00:38 5,4 C 5,0 C 3,9 C 83 % 1009,4 hPa 0,0 l/m 0 min 0 min 0 W/m 19,3 km/h (3 Bft) 88,57 %
19.12.2018 00:40 5,4 C 5,0 C 3,9 C 83 % 1009,4 hPa 0,0 l/m 0 min 0 min 0 W/m 25,7 km/h (4 Bft) 91,49 %
19.12.2018 00:42 5,4 C 5,0 C 3,9 C 83 % 1009,4 hPa 0,0 l/m 0 min 0 min 0 W/m 32,2 km/h (5 Bft) 91,30 %
19.12.2018 00:44 5,4 C 5,0 C 3,9 C 82 % 1009,5 hPa 0,0 l/m 0 min 0 min 0 W/m 41,8 km/h (6 Bft) 93,62 %
19.12.2018 00:46 5,4 C 5,0 C 3,9 C 82 % 1009,5 hPa 0,0 l/m 0 min 0 min 0 W/m 54,7 km/h (7 Bft) 87,23 %
19.12.2018 00:48 5,4 C 5,0 C 3,9 C 82 % 1009,6 hPa 0,0 l/m 0 min 0 min 0 W/m 29,0 km/h (5 Bft) 87,23 %
19.12.2018 00:50 5,5 C 5,0 C 3,9 C 82 % 1009,6 hPa 0,0 l/m 0 min 0 min 0 W/m 29,0 km/h (5 Bft) 95,74 %
19.12.2018 00:52 5,4 C 5,0 C 3,9 C 82 % 1009,7 hPa 0,0 l/m 0 min 0 min 0 W/m 29,0 km/h (5 Bft) 91,49 %
19.12.2018 00:54 5,4 C 5,0 C 3,9 C 82 % 1009,7 hPa 0,0 l/m 0 min 0 min 0 W/m 25,7 km/h (4 Bft) 91,30 %
19.12.2018 00:56 5,4 C 5,0 C 3,9 C 82 % 1009,8 hPa 0,0 l/m 0 min 0 min 0 W/m 29,0 km/h (5 Bft) 89,36 %
19.12.2018 00:58 5,4 C 5,0 C 3,9 C 82 % 1009,7 hPa 0,0 l/m 0 min 0 min 0 W/m 41,8 km/h (6 Bft) 89,36 %
19.12.2018 01:00 5,4 C 5,0 C 3,9 C 82 % 1009,7 hPa 0,0 l/m 0 min 0 min 0 W/m 38,6 km/h (5 Bft) 95,74 %
19.12.2018 01:02 5,4 C 5,0 C 3,9 C 82 % 1009,7 hPa 0,0 l/m 0 min 0 min 0 W/m 32,2 km/h (5 Bft) 93,62 %
19.12.2018 01:04 5,4 C 5,0 C 3,9 C 82 % 1009,6 hPa 0,0 l/m 0 min 0 min 0 W/m 25,7 km/h (4 Bft) 95,74 %
19.12.2018 01:06 5,4 C 5,0 C 3,9 C 82 % 1009,5 hPa 0,0 l/m 0 min 0 min 0 W/m 25,7 km/h (4 Bft) 96,55 %
19.12.2018 01:08 5,4 C 5,0 C 3,9 C 82 % 1009,5 hPa 0,0 l/m 0 min 0 min 0 W/m 22,5 km/h (4 Bft) 97,14 %
19.12.2018 01:10 5,3 C 4,4 C 3,9 C 82 % 1009,4 hPa 0,0 l/m 0 min 0 min 0 W/m 29,0 km/h (5 Bft) 95,74 %
19.12.2018 01:12 5,3 C 4,4 C 3,9 C 82 % 1009,3 hPa 0,0 l/m 0 min 0 min 0 W/m 29,0 km/h (5 Bft) 97,87 %
19.12.2018 01:14 5,3 C 5,0 C 3,9 C 82 % 1009,3 hPa 0,0 l/m 0 min 0 min 0 W/m 29,0 km/h (5 Bft) 100,00 %
19.12.2018 01:16 5,3 C 5,0 C 3,9 C 82 % 1009,3 hPa 0,0 l/m 0 min 0 min 0 W/m 25,7 km/h (4 Bft) 93,62 %
19.12.2018 01:18 5,3 C 5,0 C 3,9 C 82 % 1009,3 hPa 0,0 l/m 0 min 0 min 0 W/m 29,0 km/h (5 Bft) 91,30 %
19.12.2018 01:20 5,3 C 5,0 C 3,9 C 82 % 1009,3 hPa 0,0 l/m 0 min 0 min 0 W/m 35,4 km/h (5 Bft) 87,23 %
19.12.2018 01:22 5,3 C 5,0 C 3,9 C 82 % 1009,3 hPa 0,0 l/m 0 min 0 min 0 W/m 25,7 km/h (4 Bft) 89,36 %
19.12.2018 01:24 5,3 C 5,0 C 3,9 C 82 % 1009,4 hPa 0,0 l/m 0 min 0 min 0 W/m 38,6 km/h (5 Bft) 87,23 %
19.12.2018 01:26 5,2 C 4,4 C 3,9 C 82 % 1009,3 hPa 0,0 l/m 0 min 0 min 0 W/m 22,5 km/h (4 Bft) 93,62 %
19.12.2018 01:28 5,2 C 4,4 C 3,9 C 82 % 1009,3 hPa 0,0 l/m 0 min 0 min 0 W/m 22,5 km/h (4 Bft) 91,49 %
19.12.2018 01:30 5,2 C 4,4 C 3,9 C 82 % 1009,3 hPa 0,0 l/m 0 min 0 min 0 W/m 29,0 km/h (5 Bft) 89,13 %
19.12.2018 01:32 5,2 C 4,4 C 3,9 C 82 % 1009,3 hPa 0,0 l/m 0 min 0 min 0 W/m 19,3 km/h (3 Bft) 89,36 %
19.12.2018 01:34 5,2 C 5,0 C 3,9 C 83 % 1009,3 hPa 0,0 l/m 0 min 0 min 0 W/m 25,7 km/h (4 Bft) 87,23 %
19.12.2018 01:36 5,2 C 5,0 C 3,9 C 83 % 1009,2 hPa 0,0 l/m 0 min 0 min 0 W/m 32,2 km/h (5 Bft) 85,11 %
19.12.2018 01:38 5,2 C 5,0 C 3,9 C 83 % 1009,3 hPa 0,0 l/m 0 min 0 min 0 W/m 32,2 km/h (5 Bft) 82,98 %
19.12.2018 01:40 5,2 C 5,0 C 3,9 C 83 % 1009,2 hPa 0,0 l/m 0 min 0 min 0 W/m 25,7 km/h (4 Bft) 86,96 %
19.12.2018 01:42 5,2 C 4,4 C 3,9 C 83 % 1009,0 hPa 0,0 l/m 0 min 0 min 0 W/m 22,5 km/h (4 Bft) 97,87 %
19.12.2018 01:44 5,2 C 4,4 C 3,9 C 83 % 1009,0 hPa 0,0 l/m 0 min 0 min 0 W/m 25,7 km/h (4 Bft) 91,49 %
19.12.2018 01:46 5,2 C 5,0 C 3,9 C 83 % 1008,9 hPa 0,0 l/m 0 min 0 min 0 W/m 35,4 km/h (5 Bft) 93,62 %
19.12.2018 01:49 5,2 C 5,0 C 3,9 C 83 % 1008,9 hPa 0,0 l/m 0 min 0 min 0 W/m 29,0 km/h (5 Bft) 91,36 %
19.12.2018 01:50 5,2 C 5,0 C 3,9 C 83 % 1008,9 hPa 0,0 l/m 0 min 0 min 0 W/m 25,7 km/h (4 Bft) 95,65 %
19.12.2018 01:52 5,2 C 5,0 C 3,9 C 83 % 1008,9 hPa 0,0 l/m 0 min 0 min 0 W/m 22,5 km/h (4 Bft) 87,23 %
19.12.2018 01:54 5,2 C 5,0 C 3,9 C 83 % 1008,8 hPa 0,0 l/m 0 min 0 min 0 W/m 29,0 km/h (5 Bft) 89,36 %
19.12.2018 01:56 5,2 C 5,0 C 3,9 C 83 % 1009,0 hPa 0,0 l/m 0 min 0 min 0 W/m 25,7 km/h (4 Bft) 85,11 %
19.12.2018 01:58 5,2 C 5,0 C 3,9 C 82 % 1008,9 hPa 0,0 l/m 0 min 0 min 0 W/m 35,4 km/h (5 Bft) 87,23 %
19.12.2018 02:00 5,2 C 5,0 C 3,9 C 82 % 1008,9 hPa 0,0 l/m 0 min 0 min 0 W/m 35,4 km/h (5 Bft) 91,49 %
19.12.2018 02:02 5,2 C 5,0 C 3,9 C 82 % 1008,8 hPa 0,0 l/m 0 min 0 min 0 W/m 29,0 km/h (5 Bft) 89,13 %
19.12.2018 02:04 5,2 C 5,0 C 3,9 C 82 % 1008,9 hPa 0,0 l/m 0 min 0 min 0 W/m 22,5 km/h (4 Bft) 89,36 %
19.12.2018 02:06 5,2 C 5,0 C 3,9 C 82 % 1009,0 hPa 0,0 l/m 0 min 0 min 0 W/m 22,5 km/h (4 Bft) 82,98 %
19.12.2018 02:08 5,2 C 5,0 C 3,9 C 82 % 1009,0 hPa 0,0 l/m 0 min 0 min 0 W/m 29,0 km/h (5 Bft) 82,98 %
19.12.2018 02:10 5,2 C 4,4 C 3,9 C 82 % 1009,0 hPa 0,0 l/m 0 min 2 min 0 W/m 35,4 km/h (5 Bft) 87,23 %
19.12.2018 02:12 5,2 C 4,4 C 3,9 C 82 % 1009,1 hPa 0,0 l/m 0 min 2 min 0 W/m 25,7 km/h (4 Bft) 90,24 %
19.12.2018 02:14 5,2 C 3,9 C 3,3 C 83 % 1008,8 hPa 0,0 l/m 0 min 2 min 0 W/m 25,7 km/h (4 Bft) 84,78 %
19.12.2018 02:16 5,2 C 3,3 C 3,3 C 83 % 1008,8 hPa 0,0 l/m 0 min 2 min 0 W/m 35,4 km/h (5 Bft) 92,45 %
19.12.2018 02:18 5,2 C 3,3 C 2,8 C 84 % 1008,9 hPa 0,0 l/m 0 min 2 min 0 W/m 29,0 km/h (5 Bft) 89,36 %
19.12.2018 02:20 5,2 C 3,3 C 2,8 C 84 % 1008,9 hPa 0,0 l/m 0 min 2 min 0 W/m 29,0 km/h (5 Bft) 91,49 %
19.12.2018 02:22 5,1 C 3,3 C 2,8 C 84 % 1009,0 hPa 0,0 l/m 0 min 2 min 0 W/m 25,7 km/h (4 Bft) 87,23 %
19.12.2018 02:24 5,1 C 3,3 C 2,8 C 84 % 1009,0 hPa 0,2 l/m 0 min 2 min 0 W/m 29,0 km/h (5 Bft) 91,30 %
19.12.2018 02:26 5,1 C 3,3 C 2,8 C 84 % 1009,0 hPa 0,0 l/m 0 min 2 min 0 W/m 25,7 km/h (4 Bft) 89,36 %
19.12.2018 02:28 5,1 C 3,3 C 2,8 C 85 % 1009,1 hPa 0,0 l/m 0 min 2 min 0 W/m 29,0 km/h (5 Bft) 85,11 %
19.12.2018 02:30 5,0 C 3,9 C 3,3 C 85 % 1009,1 hPa 0,0 l/m 0 min 2 min 0 W/m 35,4 km/h (5 Bft) 89,36 %
19.12.2018 02:32 5,0 C 3,9 C 3,3 C 85 % 1009,1 hPa 0,0 l/m 0 min 2 min 0 W/m 32,2 km/h (5 Bft) 97,87 %
19.12.2018 02:34 5,0 C 3,9 C 3,3 C 85 % 1009,0 hPa 0,0 l/m 0 min 2 min 0 W/m 32,2 km/h (5 Bft) 95,74 %
19.12.2018 02:36 5,0 C 3,9 C 3,3 C 85 % 1009,0 hPa 0,0 l/m 0 min 0 min 0 W/m 19,3 km/h (3 Bft) 97,83 %
19.12.2018 02:38 5,0 C 3,9 C 3,3 C 85 % 1009,0 hPa 0,0 l/m 0 min 0 min 0 W/m 25,7 km/h (4 Bft) 97,87 %
19.12.2018 02:40 5,0 C 3,9 C 3,3 C 85 % 1009,1 hPa 0,0 l/m 0 min 0 min 0 W/m 38,6 km/h (5 Bft) 93,62 %
19.12.2018 02:42 5,0 C 3,9 C 3,3 C 85 % 1009,1 hPa 0,0 l/m 0 min 0 min 0 W/m 22,5 km/h (4 Bft) 97,87 %
19.12.2018 02:44 5,0 C 3,9 C 3,3 C 85 % 1009,1 hPa 0,0 l/m 0 min 0 min 0 W/m 32,2 km/h (5 Bft) 95,74 %
19.12.2018 02:46 5,0 C 3,9 C 3,3 C 85 % 1009,1 hPa 0,0 l/m 0 min 0 min 0 W/m 22,5 km/h (4 Bft) 91,49 %
19.12.2018 02:48 5,0 C 4,4 C 3,3 C 85 % 1009,1 hPa 0,0 l/m 0 min 0 min 0 W/m 25,7 km/h (4 Bft) 97,83 %
19.12.2018 02:50 5,0 C 4,4 C 3,9 C 85 % 1009,1 hPa 0,0 l/m 0 min 0 min 0 W/m 32,2 km/h (5 Bft) 93,62 %
19.12.2018 02:52 5,0 C 4,4 C 3,9 C 85 % 1009,1 hPa 0,0 l/m 0 min 0 min 0 W/m 25,7 km/h (4 Bft) 97,87 %
19.12.2018 02:54 5,0 C 4,4 C 3,9 C 85 % 1009,1 hPa 0,0 l/m 0 min 0 min 0 W/m 32,2 km/h (5 Bft) 95,74 %
19.12.2018 02:56 5,0 C 4,4 C 3,9 C 85 % 1009,2 hPa 0,0 l/m 0 min 0 min 0 W/m 25,7 km/h (4 Bft) 85,11 %
19.12.2018 02:58 5,1 C 4,4 C 3,9 C 85 % 1009,2 hPa 0,0 l/m 0 min 0 min 0 W/m 22,5 km/h (4 Bft) 97,87 %
19.12.2018 03:00 5,1 C 4,4 C 3,9 C 85 % 1009,1 hPa 0,0 l/m 0 min 0 min 0 W/m 25,7 km/h (4 Bft) 91,30 %
19.12.2018 03:02 5,1 C 4,4 C 3,9 C 84 % 1009,2 hPa 0,0 l/m 0 min 0 min 0 W/m 25,7 km/h (4 Bft) 93,62 %
19.12.2018 03:04 5,1 C 4,4 C 3,9 C 84 % 1009,2 hPa 0,0 l/m 0 min 0 min 0 W/m 32,2 km/h (5 Bft) 93,62 %
19.12.2018 03:06 5,1 C 5,0 C 3,9 C 84 % 1009,1 hPa 0,0 l/m 0 min 0 min 0 W/m 32,2 km/h (5 Bft) 93,62 %
19.12.2018 03:08 5,2 C 5,0 C 3,9 C 84 % 1009,0 hPa 0,0 l/m 0 min 0 min 0 W/m 32,2 km/h (5 Bft) 97,87 %
19.12.2018 03:10 5,2 C 5,0 C 3,9 C 84 % 1009,1 hPa 0,0 l/m 0 min 0 min 0 W/m 25,7 km/h (4 Bft) 97,87 %
19.12.2018 03:12 5,2 C 5,0 C 3,9 C 84 % 1009,1 hPa 0,0 l/m 0 min 0 min 0 W/m 22,5 km/h (4 Bft) 93,48 %
19.12.2018 03:14 5,2 C 5,0 C 3,9 C 84 % 1009,2 hPa 0,0 l/m 0 min 0 min 0 W/m 29,0 km/h (5 Bft) 93,62 %
19.12.2018 03:16 5,2 C 5,0 C 3,9 C 84 % 1009,2 hPa 0,0 l/m 0 min 0 min 0 W/m 29,0 km/h (5 Bft) 97,87 %
19.12.2018 03:18 5,3 C 5,0 C 3,9 C 84 % 1009,3 hPa 0,0 l/m 0 min 0 min 0 W/m 25,7 km/h (4 Bft) 97,87 %
19.12.2018 03:20 5,3 C 5,0 C 3,9 C 84 % 1009,4 hPa 0,0 l/m 0 min 0 min 0 W/m 25,7 km/h (4 Bft) 100,00 %
19.12.2018 03:22 5,3 C 5,0 C 3,9 C 84 % 1009,4 hPa 0,0 l/m 0 min 2 min 0 W/m 32,2 km/h (5 Bft) 97,83 %
19.12.2018 03:24 5,3 C 5,0 C 3,9 C 84 % 1009,4 hPa 0,0 l/m 0 min 0 min 0 W/m 16,1 km/h (3 Bft) 100,00 %
19.12.2018 03:26 5,3 C 5,0 C 3,9 C 84 % 1009,4 hPa 0,0 l/m 0 min 2 min 0 W/m 22,5 km/h (4 Bft) 97,87 %
19.12.2018 03:28 5,3 C 4,4 C 3,9 C 84 % 1009,5 hPa 0,0 l/m 0 min 2 min 0 W/m 19,3 km/h (3 Bft) 91,49 %
19.12.2018 03:30 5,4 C 3,9 C 3,3 C 84 % 1009,6 hPa 0,0 l/m 0 min 2 min 0 W/m 32,2 km/h (5 Bft) 97,87 %
19.12.2018 03:32 5,4 C 3,9 C 3,3 C 84 % 1009,5 hPa 0,0 l/m 0 min 2 min 0 W/m 22,5 km/h (4 Bft) 97,87 %
19.12.2018 03:34 5,4 C 3,9 C 3,3 C 84 % 1009,4 hPa 0,0 l/m 0 min 2 min 0 W/m 29,0 km/h (5 Bft) 95,65 %
19.12.2018 03:36 5,4 C 3,3 C 3,3 C 85 % 1008,9 hPa 0,0 l/m 0 min 2 min 0 W/m 19,3 km/h (3 Bft) 95,74 %
19.12.2018 03:38 5,3 C 3,3 C 2,8 C 85 % 1008,8 hPa 0,0 l/m 0 min 2 min 0 W/m 16,1 km/h (3 Bft) 93,62 %
19.12.2018 03:40 5,3 C 3,3 C 2,8 C 85 % 1008,8 hPa 0,0 l/m 0 min 2 min 0 W/m 25,7 km/h (4 Bft) 95,74 %
19.12.2018 03:42 5,3 C 3,3 C 2,8 C 86 % 1009,0 hPa 0,0 l/m 0 min 2 min 0 W/m 19,3 km/h (3 Bft) 95,74 %
19.12.2018 03:44 5,3 C 3,3 C 2,8 C 86 % 1008,8 hPa 0,0 l/m 0 min 2 min 0 W/m 22,5 km/h (4 Bft) 95,74 %
19.12.2018 03:46 5,2 C 3,3 C 2,8 C 86 % 1009,0 hPa 0,0 l/m 0 min 2 min 0 W/m 25,7 km/h (4 Bft) 97,83 %
19.12.2018 03:48 5,2 C 3,3 C 2,8 C 86 % 1008,9 hPa 0,0 l/m 0 min 2 min 0 W/m 22,5 km/h (4 Bft) 93,62 %
19.12.2018 03:50 5,2 C 3,3 C 2,8 C 86 % 1009,1 hPa 0,0 l/m 0 min 2 min 0 W/m 29,0 km/h (5 Bft) 97,87 %
19.12.2018 03:52 5,2 C 3,3 C 2,8 C 87 % 1009,0 hPa 0,0 l/m 0 min 2 min 0 W/m 22,5 km/h (4 Bft) 93,62 %
19.12.2018 03:54 5,2 C 3,3 C 2,8 C 87 % 1009,0 hPa 0,2 l/m 0 min 2 min 0 W/m 22,5 km/h (4 Bft) 93,62 %
19.12.2018 03:56 5,2 C 3,3 C 2,8 C 87 % 1009,0 hPa 0,0 l/m 0 min 2 min 0 W/m 19,3 km/h (3 Bft) 97,87 %
19.12.2018 03:58 5,1 C 3,3 C 2,8 C 87 % 1008,9 hPa 0,0 l/m 0 min 2 min 0 W/m 16,1 km/h (3 Bft) 97,83 %
19.12.2018 04:00 5,1 C 3,3 C 2,8 C 87 % 1008,9 hPa 0,0 l/m 0 min 2 min 0 W/m 16,1 km/h (3 Bft) 95,74 %
19.12.2018 04:02 5,1 C 3,3 C 2,8 C 87 % 1008,9 hPa 0,0 l/m 0 min 2 min 0 W/m 16,1 km/h (3 Bft) 100,00 %
19.12.2018 04:04 5,1 C 3,3 C 2,8 C 88 % 1008,9 hPa 0,0 l/m 0 min 2 min 0 W/m 22,5 km/h (4 Bft) 97,87 %
19.12.2018 04:06 5,1 C 3,3 C 2,8 C 88 % 1008,8 hPa 0,0 l/m 0 min 2 min 0 W/m 16,1 km/h (3 Bft) 97,87 %
19.12.2018 04:08 5,1 C 3,3 C 2,8 C 88 % 1008,8 hPa 0,2 l/m 0 min 2 min 0 W/m 22,5 km/h (4 Bft) 93,62 %
19.12.2018 04:10 5,1 C 3,3 C 2,8 C 88 % 1008,8 hPa 0,0 l/m 0 min 2 min 0 W/m 22,5 km/h (4 Bft) 95,65 %
19.12.2018 04:12 5,1 C 3,3 C 2,8 C 88 % 1008,8 hPa 0,0 l/m 0 min 2 min 0 W/m 12,9 km/h (3 Bft) 93,62 %
19.12.2018 04:14 5,0 C 3,3 C 2,8 C 88 % 1008,8 hPa 0,0 l/m 0 min 2 min 0 W/m 16,1 km/h (3 Bft) 95,74 %
19.12.2018 04:16 5,0 C 3,3 C 2,8 C 88 % 1008,7 hPa 0,0 l/m 0 min 2 min 0 W/m 22,5 km/h (4 Bft) 93,62 %
19.12.2018 04:18 5,0 C 3,3 C 2,8 C 88 % 1008,4 hPa 0,0 l/m 0 min 2 min 0 W/m 19,3 km/h (3 Bft) 93,62 %
19.12.2018 04:20 5,0 C 3,3 C 2,8 C 88 % 1008,3 hPa 0,0 l/m 0 min 2 min 0 W/m 22,5 km/h (4 Bft) 95,65 %
19.12.2018 04:22 5,0 C 3,3 C 2,8 C 89 % 1008,3 hPa 0,0 l/m 0 min 2 min 0 W/m 25,7 km/h (4 Bft) 95,74 %
19.12.2018 04:24 5,0 C 3,3 C 2,8 C 89 % 1008,1 hPa 0,0 l/m 0 min 2 min 0 W/m 32,2 km/h (5 Bft) 91,49 %
19.12.2018 04:26 5,0 C 3,3 C 2,8 C 89 % 1008,2 hPa 0,0 l/m 0 min 0 min 0 W/m 19,3 km/h (3 Bft) 93,62 %
19.12.2018 04:28 5,0 C 3,3 C 2,8 C 89 % 1008,2 hPa 0,0 l/m 0 min 0 min 0 W/m 29,0 km/h (5 Bft) 95,74 %
19.12.2018 04:30 5,0 C 3,3 C 2,8 C 89 % 1008,2 hPa 0,0 l/m 0 min 0 min 0 W/m 22,5 km/h (4 Bft) 93,62 %
19.12.2018 04:32 5,0 C 3,3 C 2,8 C 89 % 1008,2 hPa 0,0 l/m 0 min 0 min 0 W/m 22,5 km/h (4 Bft) 95,65 %
19.12.2018 04:34 5,0 C 3,3 C 2,8 C 89 % 1008,2 hPa 0,0 l/m 0 min 2 min 0 W/m 25,7 km/h (4 Bft) 95,74 %
19.12.2018 04:36 5,0 C 3,3 C 2,8 C 89 % 1008,1 hPa 0,0 l/m 0 min 2 min 0 W/m 22,5 km/h (4 Bft) 95,74 %
19.12.2018 04:38 5,0 C 3,3 C 2,8 C 89 % 1008,2 hPa 0,0 l/m 0 min 2 min 0 W/m 16,1 km/h (3 Bft) 97,87 %
19.12.2018 04:40 5,0 C 3,3 C 2,8 C 89 % 1008,3 hPa 0,0 l/m 0 min 0 min 0 W/m 29,0 km/h (5 Bft) 97,87 %
19.12.2018 04:42 5,0 C 3,3 C 2,8 C 89 % 1008,2 hPa 0,0 l/m 0 min 2 min 0 W/m 25,7 km/h (4 Bft) 93,62 %
19.12.2018 04:44 5,0 C 3,3 C 2,8 C 89 % 1008,1 hPa 0,0 l/m 0 min 2 min 0 W/m 25,7 km/h (4 Bft) 97,83 %
19.12.2018 04:46 5,0 C 3,3 C 2,8 C 89 % 1008,2 hPa 0,0 l/m 0 min 2 min 0 W/m 25,7 km/h (4 Bft) 95,74 %
19.12.2018 04:48 5,0 C 3,3 C 2,8 C 89 % 1008,2 hPa 0,0 l/m 0 min 2 min 0 W/m 22,5 km/h (4 Bft) 97,87 %
19.12.2018 04:50 5,0 C 3,3 C 2,8 C 89 % 1008,4 hPa 0,0 l/m 0 min 2 min 0 W/m 22,5 km/h (4 Bft) 97,87 %
19.12.2018 04:52 5,0 C 3,3 C 2,8 C 89 % 1008,3 hPa 0,0 l/m 0 min 0 min 0 W/m 19,3 km/h (3 Bft) 95,74 %
19.12.2018 04:54 5,0 C 3,3 C 2,8 C 89 % 1008,3 hPa 0,0 l/m 0 min 2 min 0 W/m 29,0 km/h (5 Bft) 97,87 %
19.12.2018 04:56 5,0 C 3,3 C 2,8 C 88 % 1008,4 hPa 0,0 l/m 0 min 2 min 0 W/m 32,2 km/h (5 Bft) 100,00 %
19.12.2018 05:00 5,0 C 3,3 C 2,8 C 88 % 1008,3 hPa 0,0 l/m 0 min 0 min 0 W/m 19,3 km/h (3 Bft) 96,81 %
19.12.2018 05:02 5,0 C 3,3 C 3,3 C 88 % 1008,4 hPa 0,0 l/m 0 min 0 min 0 W/m 29,0 km/h (5 Bft) 95,74 %
19.12.2018 05:04 5,1 C 3,9 C 3,3 C 88 % 1008,4 hPa 0,0 l/m 0 min 0 min 0 W/m 22,5 km/h (4 Bft) 97,87 %
19.12.2018 05:05 5,0 C 3,9 C 3,3 C 88 % 1008,4 hPa 0,0 l/m 0 min 1 min 0 W/m 29,0 km/h (5 Bft) 99,12 %
19.12.2018 05:12 5,1 C 3,9 C 3,3 C 88 % 1008,3 hPa 0,0 l/m 0 min 0 min 0 W/m 29,0 km/h (5 Bft) 93,10 %
19.12.2018 05:14 5,1 C 3,9 C 3,3 C 88 % 1008,2 hPa 0,0 l/m 0 min 2 min 0 W/m 29,0 km/h (5 Bft) 97,87 %
19.12.2018 05:16 5,1 C 3,9 C 3,3 C 88 % 1008,2 hPa 0,0 l/m 0 min 2 min 0 W/m 22,5 km/h (4 Bft) 97,87 %
19.12.2018 05:18 5,1 C 3,9 C 3,3 C 88 % 1008,3 hPa 0,0 l/m 0 min 2 min 0 W/m 32,2 km/h (5 Bft) 97,87 %
19.12.2018 05:20 5,2 C 3,9 C 3,3 C 88 % 1008,4 hPa 0,0 l/m 0 min 2 min 0 W/m 25,7 km/h (4 Bft) 95,65 %
19.12.2018 05:22 5,2 C 3,9 C 3,3 C 88 % 1008,5 hPa 0,0 l/m 0 min 2 min 0 W/m 22,5 km/h (4 Bft) 97,87 %
19.12.2018 05:24 5,2 C 3,9 C 3,3 C 88 % 1008,3 hPa 0,0 l/m 0 min 2 min 0 W/m 29,0 km/h (5 Bft) 97,87 %
19.12.2018 05:26 5,2 C 3,9 C 3,3 C 88 % 1008,4 hPa 0,0 l/m 0 min 2 min 0 W/m 22,5 km/h (4 Bft) 96,30 %
19.12.2018 05:28 5,2 C 3,9 C 3,3 C 88 % 1008,4 hPa 0,0 l/m 0 min 2 min 0 W/m 16,1 km/h (3 Bft) 97,37 %
19.12.2018 05:30 5,2 C 3,9 C 3,3 C 88 % 1008,4 hPa 0,0 l/m 0 min 2 min 0 W/m 29,0 km/h (5 Bft) 97,87 %
19.12.2018 05:32 5,2 C 3,9 C 3,3 C 88 % 1008,5 hPa 0,0 l/m 0 min 0 min 0 W/m 25,7 km/h (4 Bft) 97,87 %
19.12.2018 05:34 5,2 C 3,9 C 3,3 C 88 % 1008,4 hPa 0,0 l/m 0 min 2 min 0 W/m 22,5 km/h (4 Bft) 97,87 %
19.12.2018 05:36 5,2 C 3,9 C 3,3 C 88 % 1008,4 hPa 0,0 l/m 0 min 0 min 0 W/m 25,7 km/h (4 Bft) 97,92 %
19.12.2018 05:38 5,2 C 3,9 C 3,3 C 88 % 1008,5 hPa 0,0 l/m 0 min 0 min 0 W/m 19,3 km/h (3 Bft) 97,87 %
19.12.2018 05:40 5,2 C 3,9 C 3,3 C 88 % 1008,4 hPa 0,0 l/m 0 min 0 min 0 W/m 16,1 km/h (3 Bft) 100,00 %
19.12.2018 05:42 5,2 C 3,9 C 3,3 C 88 % 1008,5 hPa 0,0 l/m 0 min 0 min 0 W/m 22,5 km/h (4 Bft) 100,00 %
19.12.2018 05:44 5,2 C 3,9 C 3,3 C 88 % 1008,6 hPa 0,0 l/m 0 min 0 min 0 W/m 25,7 km/h (4 Bft) 100,00 %
19.12.2018 05:46 5,2 C 3,9 C 3,3 C 88 % 1008,5 hPa 0,0 l/m 0 min 0 min 0 W/m 29,0 km/h (5 Bft) 97,83 %
19.12.2018 05:48 5,2 C 3,9 C 3,3 C 88 % 1008,6 hPa 0,0 l/m 0 min 0 min 0 W/m 22,5 km/h (4 Bft) 97,87 %
19.12.2018 05:50 5,2 C 3,9 C 3,3 C 88 % 1008,6 hPa 0,0 l/m 0 min 0 min 0 W/m 25,7 km/h (4 Bft) 100,00 %
19.12.2018 05:52 5,2 C 3,9 C 3,3 C 89 % 1008,5 hPa 0,0 l/m 0 min 0 min 0 W/m 16,1 km/h (3 Bft) 100,00 %
19.12.2018 05:54 5,2 C 3,9 C 3,9 C 89 % 1008,5 hPa 0,0 l/m 0 min 0 min 0 W/m 16,1 km/h (3 Bft) 100,00 %
19.12.2018 05:56 5,2 C 3,9 C 3,3 C 89 % 1008,5 hPa 0,0 l/m 0 min 0 min 0 W/m 19,3 km/h (3 Bft) 100,00 %
19.12.2018 05:58 5,2 C 3,9 C 3,3 C 89 % 1008,5 hPa 0,0 l/m 0 min 0 min 0 W/m 22,5 km/h (4 Bft) 100,00 %
19.12.2018 06:00 5,2 C 3,9 C 3,3 C 89 % 1008,5 hPa 0,0 l/m 0 min 0 min 0 W/m 19,3 km/h (3 Bft) 100,00 %
19.12.2018 06:02 5,2 C 3,9 C 3,3 C 89 % 1008,6 hPa 0,0 l/m 0 min 0 min 0 W/m 19,3 km/h (3 Bft) 100,00 %
19.12.2018 06:04 5,2 C 3,9 C 3,9 C 89 % 1008,5 hPa 0,0 l/m 0 min 0 min 0 W/m 22,5 km/h (4 Bft) 97,87 %
19.12.2018 06:07 5,2 C 3,9 C 3,3 C 89 % 1008,6 hPa 0,0 l/m 0 min 0 min 0 W/m 16,1 km/h (3 Bft) 100,00 %
19.12.2018 06:08 5,2 C 3,9 C 3,3 C 89 % 1008,6 hPa 0,0 l/m 0 min 0 min 0 W/m 25,7 km/h (4 Bft) 95,65 %
19.12.2018 06:10 5,2 C 3,9 C 3,3 C 89 % 1008,6 hPa 0,0 l/m 0 min 0 min 0 W/m 22,5 km/h (4 Bft) 100,00 %
19.12.2018 06:12 5,2 C 3,9 C 3,9 C 90 % 1008,6 hPa 0,0 l/m 0 min 0 min 0 W/m 25,7 km/h (4 Bft) 100,00 %
19.12.2018 06:14 5,2 C 3,9 C 3,9 C 90 % 1008,7 hPa 0,0 l/m 0 min 0 min 0 W/m 12,9 km/h (3 Bft) 97,87 %
19.12.2018 06:16 5,2 C 3,9 C 3,3 C 90 % 1008,7 hPa 0,0 l/m 0 min 0 min 0 W/m 9,7 km/h (2 Bft) 100,00 %
19.12.2018 06:18 5,2 C 3,9 C 3,9 C 90 % 1008,7 hPa 0,0 l/m 0 min 0 min 0 W/m 22,5 km/h (4 Bft) 100,00 %
19.12.2018 06:20 5,2 C 3,9 C 3,3 C 90 % 1008,7 hPa 0,0 l/m 0 min 0 min 0 W/m 12,9 km/h (3 Bft) 95,74 %
19.12.2018 06:22 5,2 C 3,9 C 3,3 C 90 % 1008,7 hPa 0,0 l/m 0 min 0 min 0 W/m 12,9 km/h (3 Bft) 97,87 %
19.12.2018 06:24 5,2 C 3,9 C 3,3 C 90 % 1008,7 hPa 0,0 l/m 0 min 0 min 0 W/m 22,5 km/h (4 Bft) 97,87 %
19.12.2018 06:26 5,2 C 3,9 C 3,9 C 90 % 1008,8 hPa 0,0 l/m 0 min 0 min 0 W/m 12,9 km/h (3 Bft) 100,00 %
19.12.2018 06:28 5,2 C 3,9 C 3,9 C 90 % 1008,8 hPa 0,0 l/m 0 min 0 min 0 W/m 12,9 km/h (3 Bft) 100,00 %
19.12.2018 06:30 5,2 C 3,9 C 3,3 C 90 % 1008,7 hPa 0,0 l/m 0 min 0 min 0 W/m 12,9 km/h (3 Bft) 97,87 %
19.12.2018 06:32 5,2 C 3,9 C 3,3 C 90 % 1008,7 hPa 0,0 l/m 0 min 0 min 0 W/m 3,2 km/h (1 Bft) 97,83 %
19.12.2018 06:34 5,2 C 3,9 C 3,3 C 91 % 1008,7 hPa 0,0 l/m 0 min 0 min 0 W/m 3,2 km/h (1 Bft) 97,87 %
19.12.2018 06:36 5,2 C 3,9 C 3,3 C 91 % 1008,8 hPa 0,0 l/m 0 min 0 min 0 W/m 3,2 km/h (1 Bft) 97,87 %
19.12.2018 06:38 5,2 C 3,9 C 3,3 C 91 % 1008,8 hPa 0,0 l/m 0 min 0 min 0 W/m 0,0 km/h (0 Bft) 95,74 %
19.12.2018 06:40 5,2 C 3,9 C 3,3 C 91 % 1008,8 hPa 0,0 l/m 0 min 0 min 0 W/m 0,0 km/h (0 Bft) 97,87 %
19.12.2018 06:42 5,2 C 4,4 C 3,3 C 91 % 1008,8 hPa 0,0 l/m 0 min 0 min 0 W/m 0,0 km/h (0 Bft) 91,30 %
19.12.2018 06:44 5,2 C 4,4 C 3,3 C 91 % 1008,8 hPa 0,0 l/m 0 min 0 min 0 W/m 0,0 km/h (0 Bft) 93,62 %
19.12.2018 06:46 5,2 C 4,4 C 3,9 C 91 % 1008,9 hPa 0,0 l/m 0 min 0 min 0 W/m 0,0 km/h (0 Bft) 93,62 %
19.12.2018 06:48 5,2 C 4,4 C 3,3 C 91 % 1009,0 hPa 0,0 l/m 0 min 0 min 0 W/m 0,0 km/h (0 Bft) 97,87 %
19.12.2018 06:50 5,2 C 4,4 C 3,9 C 91 % 1008,9 hPa 0,0 l/m 0 min 0 min 0 W/m 9,7 km/h (2 Bft) 93,62 %
19.12.2018 06:52 5,2 C 3,9 C 3,9 C 91 % 1008,9 hPa 0,0 l/m 0 min 2 min 0 W/m 6,4 km/h (2 Bft) 97,87 %
19.12.2018 06:54 5,2 C 3,9 C 3,9 C 92 % 1009,0 hPa 0,0 l/m 0 min 0 min 0 W/m 0,0 km/h (0 Bft) 97,83 %
19.12.2018 06:56 5,2 C 3,9 C 3,9 C 91 % 1009,1 hPa 0,0 l/m 0 min 0 min 0 W/m 0,0 km/h (0 Bft) 97,87 %
19.12.2018 06:58 5,2 C 3,9 C 3,9 C 92 % 1009,0 hPa 0,0 l/m 0 min 0 min 0 W/m 0,0 km/h (0 Bft) 97,87 %
19.12.2018 07:00 5,2 C 4,4 C 3,9 C 92 % 1009,0 hPa 0,0 l/m 0 min 0 min 0 W/m 0,0 km/h (0 Bft) 95,74 %
19.12.2018 07:02 5,2 C 4,4 C 3,9 C 92 % 1009,1 hPa 0,0 l/m 0 min 0 min 0 W/m 0,0 km/h (0 Bft) 97,87 %
19.12.2018 07:04 5,3 C 4,4 C 3,9 C 92 % 1009,1 hPa 0,0 l/m 0 min 0 min 0 W/m 0,0 km/h (0 Bft) 97,87 %
19.12.2018 07:06 5,3 C 4,4 C 3,9 C 92 % 1009,1 hPa 0,0 l/m 0 min 0 min 0 W/m 0,0 km/h (0 Bft) 97,83 %
19.12.2018 07:08 5,3 C 4,4 C 3,9 C 92 % 1009,1 hPa 0,0 l/m 0 min 0 min 0 W/m 6,4 km/h (2 Bft) 95,74 %
19.12.2018 07:10 5,3 C 4,4 C 3,9 C 93 % 1009,1 hPa 0,0 l/m 0 min 0 min 0 W/m 0,0 km/h (0 Bft) 97,87 %
19.12.2018 07:12 5,4 C 4,4 C 3,9 C 93 % 1009,1 hPa 0,0 l/m 0 min 0 min 0 W/m 3,2 km/h (1 Bft) 97,87 %
19.12.2018 07:14 5,4 C 4,4 C 3,9 C 93 % 1009,1 hPa 0,2 l/m 0 min 2 min 0 W/m 3,2 km/h (1 Bft) 97,87 %
19.12.2018 07:16 5,4 C 4,4 C 3,9 C 93 % 1009,2 hPa 0,0 l/m 0 min 2 min 0 W/m 6,4 km/h (2 Bft) 100,00 %
19.12.2018 07:18 5,4 C 4,4 C 3,9 C 93 % 1009,2 hPa 0,0 l/m 0 min 2 min 0 W/m 3,2 km/h (1 Bft) 97,87 %
19.12.2018 07:20 5,5 C 4,4 C 3,9 C 93 % 1009,3 hPa 0,0 l/m 0 min 2 min 0 W/m 9,7 km/h (2 Bft) 97,87 %
19.12.2018 07:22 5,5 C 4,4 C 3,9 C 94 % 1009,2 hPa 0,0 l/m 0 min 2 min 0 W/m 9,7 km/h (2 Bft) 97,87 %
19.12.2018 07:24 5,5 C 4,4 C 3,9 C 94 % 1009,2 hPa 0,0 l/m 0 min 0 min 0 W/m 9,7 km/h (2 Bft) 95,74 %
19.12.2018 07:26 5,6 C 4,4 C 3,9 C 94 % 1009,2 hPa 0,0 l/m 0 min 0 min 0 W/m 12,9 km/h (3 Bft) 97,87 %
19.12.2018 07:28 5,6 C 4,4 C 3,9 C 94 % 1009,1 hPa 0,0 l/m 0 min 0 min 0 W/m 3,2 km/h (1 Bft) 97,83 %
19.12.2018 07:30 5,6 C 4,4 C 3,9 C 94 % 1009,2 hPa 0,0 l/m 0 min 0 min 0 W/m 3,2 km/h (1 Bft) 95,74 %
19.12.2018 07:32 5,6 C 4,4 C 3,9 C 94 % 1009,1 hPa 0,0 l/m 0 min 0 min 0 W/m 9,7 km/h (2 Bft) 100,00 %
19.12.2018 07:34 5,6 C 4,4 C 3,9 C 94 % 1009,2 hPa 0,0 l/m 0 min 0 min 0 W/m 6,4 km/h (2 Bft) 97,87 %
19.12.2018 07:36 5,6 C 4,4 C 3,9 C 94 % 1009,2 hPa 0,0 l/m 0 min 0 min 0 W/m 0,0 km/h (0 Bft) 95,74 %
19.12.2018 07:38 5,6 C 4,4 C 3,9 C 94 % 1009,2 hPa 0,0 l/m 0 min 0 min 0 W/m 0,0 km/h (0 Bft) 95,74 %
19.12.2018 07:40 5,6 C 4,4 C 3,9 C 94 % 1009,3 hPa 0,0 l/m 0 min 0 min 0 W/m 3,2 km/h (1 Bft) 95,65 %
19.12.2018 07:42 5,6 C 4,4 C 3,9 C 94 % 1009,2 hPa 0,0 l/m 0 min 0 min 0 W/m 0,0 km/h (0 Bft) 95,74 %
19.12.2018 07:44 5,6 C 5,0 C 3,9 C 94 % 1009,2 hPa 0,0 l/m 0 min 0 min 0 W/m 3,2 km/h (1 Bft) 93,62 %
19.12.2018 07:46 5,6 C 5,0 C 3,9 C 95 % 1009,2 hPa 0,0 l/m 0 min 0 min 0 W/m 0,0 km/h (0 Bft) 95,74 %
19.12.2018 07:48 5,6 C 5,0 C 3,9 C 95 % 1009,2 hPa 0,0 l/m 0 min 0 min 0 W/m 0,0 km/h (0 Bft) 95,74 %
19.12.2018 07:50 5,6 C 5,0 C 3,9 C 95 % 1009,2 hPa 0,0 l/m 0 min 0 min 0 W/m 0,0 km/h (0 Bft) 95,74 %
19.12.2018 07:52 5,6 C 5,0 C 3,9 C 95 % 1009,2 hPa 0,0 l/m 0 min 0 min 0 W/m 0,0 km/h (0 Bft) 91,30 %
19.12.2018 07:54 5,7 C 5,0 C 4,4 C 95 % 1009,2 hPa 0,0 l/m 0 min 0 min 0 W/m 0,0 km/h (0 Bft) 95,74 %
19.12.2018 07:56 5,7 C 5,0 C 4,4 C 95 % 1009,2 hPa 0,0 l/m 0 min 0 min 0 W/m 0,0 km/h (0 Bft) 93,62 %
19.12.2018 07:58 5,7 C 5,0 C 4,4 C 95 % 1009,2 hPa 0,0 l/m 0 min 0 min 0 W/m 0,0 km/h (0 Bft) 95,74 %
19.12.2018 08:00 5,7 C 5,0 C 4,4 C 95 % 1009,2 hPa 0,0 l/m 0 min 0 min 0 W/m 0,0 km/h (0 Bft) 95,74 %
19.12.2018 08:02 5,7 C 5,0 C 4,4 C 95 % 1009,2 hPa 0,0 l/m 0 min 0 min 0 W/m 0,0 km/h (0 Bft) 91,49 %
19.12.2018 08:04 5,7 C 5,0 C 4,4 C 95 % 1009,2 hPa 0,0 l/m 0 min 0 min 0 W/m 3,2 km/h (1 Bft) 95,65 %
19.12.2018 08:06 5,7 C 5,0 C 4,4 C 95 % 1009,3 hPa 0,0 l/m 0 min 0 min 0 W/m 3,2 km/h (1 Bft) 93,62 %
19.12.2018 08:08 5,7 C 5,0 C 4,4 C 95 % 1009,3 hPa 0,0 l/m 0 min 0 min 0 W/m 3,2 km/h (1 Bft) 93,62 %
19.12.2018 08:10 5,7 C 5,0 C 4,4 C 95 % 1009,3 hPa 0,0 l/m 0 min 0 min 0 W/m 3,2 km/h (1 Bft) 95,74 %
19.12.2018 08:12 5,7 C 5,0 C 4,4 C 95 % 1009,4 hPa 0,0 l/m 0 min 0 min 0 W/m 3,2 km/h (1 Bft) 93,62 %
19.12.2018 08:14 5,8 C 5,0 C 4,4 C 95 % 1009,4 hPa 0,0 l/m 0 min 0 min 0 W/m 0,0 km/h (0 Bft) 95,74 %
19.12.2018 08:16 5,8 C 5,0 C 4,4 C 95 % 1009,4 hPa 0,0 l/m 0 min 0 min 0 W/m 0,0 km/h (0 Bft) 95,65 %
19.12.2018 08:18 5,8 C 5,0 C 4,4 C 95 % 1009,4 hPa 0,0 l/m 0 min 0 min 0 W/m 3,2 km/h (1 Bft) 93,62 %
19.12.2018 08:20 5,8 C 5,0 C 4,4 C 95 % 1009,4 hPa 0,0 l/m 0 min 0 min 0 W/m 0,0 km/h (0 Bft) 97,87 %
19.12.2018 08:22 5,8 C 5,0 C 4,4 C 95 % 1009,5 hPa 0,0 l/m 0 min 0 min 0 W/m 3,2 km/h (1 Bft) 100,00 %
19.12.2018 08:24 5,8 C 5,0 C 4,4 C 96 % 1009,4 hPa 0,0 l/m 0 min 0 min 0 W/m 0,0 km/h (0 Bft) 100,00 %
19.12.2018 08:26 5,8 C 5,0 C 4,4 C 96 % 1009,4 hPa 0,0 l/m 0 min 0 min 0 W/m 6,4 km/h (2 Bft) 97,83 %
19.12.2018 08:28 5,9 C 5,6 C 4,4 C 96 % 1009,5 hPa 0,0 l/m 0 min 0 min 0 W/m 6,4 km/h (2 Bft) 97,87 %
19.12.2018 08:30 5,9 C 5,6 C 4,4 C 96 % 1009,5 hPa 0,0 l/m 0 min 0 min 0 W/m 3,2 km/h (1 Bft) 100,00 %
19.12.2018 08:32 5,9 C 5,6 C 4,4 C 96 % 1009,5 hPa 0,0 l/m 0 min 0 min 0 W/m 0,0 km/h (0 Bft) 100,00 %
19.12.2018 08:34 5,9 C 5,6 C 4,4 C 96 % 1009,5 hPa 0,0 l/m 0 min 0 min 0 W/m 0,0 km/h (0 Bft) 100,00 %
19.12.2018 08:36 5,9 C 5,6 C 4,4 C 96 % 1009,6 hPa 0,0 l/m 0 min 0 min 0 W/m 0,0 km/h (0 Bft) 93,62 %
19.12.2018 08:38 6,0 C 5,6 C 5,0 C 96 % 1009,7 hPa 0,0 l/m 0 min 0 min 0 W/m 0,0 km/h (0 Bft) 100,00 %
19.12.2018 08:40 6,0 C 5,6 C 5,0 C 96 % 1009,8 hPa 0,0 l/m 0 min 0 min 0 W/m 0,0 km/h (0 Bft) 100,00 %
19.12.2018 08:42 6,1 C 5,6 C 5,0 C 96 % 1009,7 hPa 0,0 l/m 0 min 0 min 0 W/m 3,2 km/h (1 Bft) 100,00 %
19.12.2018 08:44 6,1 C 5,6 C 5,0 C 96 % 1009,7 hPa 0,0 l/m 0 min 0 min 0 W/m 0,0 km/h (0 Bft) 100,00 %
19.12.2018 08:46 6,1 C 5,6 C 5,0 C 96 % 1009,6 hPa 0,0 l/m 0 min 0 min 0 W/m 0,0 km/h (0 Bft) 100,00 %
19.12.2018 08:48 6,2 C 5,6 C 5,0 C 96 % 1009,7 hPa 0,0 l/m 0 min 0 min 0 W/m 0,0 km/h (0 Bft) 100,00 %
19.12.2018 08:50 6,2 C 5,6 C 5,0 C 96 % 1009,7 hPa 0,0 l/m 0 min 0 min 0 W/m 0,0 km/h (0 Bft) 95,65 %
19.12.2018 08:52 6,2 C 5,6 C 5,0 C 96 % 1009,8 hPa 0,0 l/m 0 min 0 min 0 W/m 0,0 km/h (0 Bft) 100,00 %
19.12.2018 08:54 6,2 C 5,6 C 5,0 C 96 % 1009,7 hPa 0,0 l/m 0 min 0 min 0 W/m 0,0 km/h (0 Bft) 100,00 %
19.12.2018 08:56 6,3 C 5,6 C 5,0 C 96 % 1009,8 hPa 0,0 l/m 0 min 0 min 0 W/m 3,2 km/h (1 Bft) 97,87 %
19.12.2018 08:58 6,3 C 5,6 C 5,0 C 96 % 1009,7 hPa 0,0 l/m 0 min 0 min 0 W/m 9,7 km/h (2 Bft) 97,87 %
19.12.2018 09:00 6,4 C 6,1 C 5,0 C 96 % 1009,7 hPa 0,0 l/m 0 min 0 min 0 W/m 0,0 km/h (0 Bft) 95,74 %
19.12.2018 09:02 6,4 C 6,1 C 5,0 C 96 % 1009,6 hPa 0,0 l/m 0 min 0 min 0 W/m 3,2 km/h (1 Bft) 95,65 %
19.12.2018 09:04 6,4 C 6,1 C 5,0 C 96 % 1009,7 hPa 0,0 l/m 0 min 0 min 0 W/m 0,0 km/h (0 Bft) 100,00 %
19.12.2018 09:06 6,4 C 6,1 C 5,0 C 96 % 1009,7 hPa 0,0 l/m 0 min 0 min 2 W/m 0,0 km/h (0 Bft) 97,87 %
19.12.2018 09:08 6,5 C 6,1 C 5,0 C 96 % 1010,0 hPa 0,0 l/m 0 min 0 min 5 W/m 3,2 km/h (1 Bft) 97,87 %
19.12.2018 09:10 6,5 C 6,1 C 5,6 C 97 % 1009,9 hPa 0,0 l/m 0 min 0 min 5 W/m 0,0 km/h (0 Bft) 98,00 %
19.12.2018 09:12 6,5 C 6,1 C 5,6 C 97 % 1010,0 hPa 0,0 l/m 0 min 0 min 7 W/m 0,0 km/h (0 Bft) 95,74 %
19.12.2018 09:14 6,6 C 6,1 C 5,6 C 97 % 1010,0 hPa 0,0 l/m 0 min 0 min 8 W/m 0,0 km/h (0 Bft) 95,65 %
19.12.2018 09:16 6,6 C 6,1 C 5,6 C 97 % 1010,0 hPa 0,0 l/m 0 min 0 min 8 W/m 0,0 km/h (0 Bft) 97,87 %
19.12.2018 09:18 6,6 C 6,1 C 5,6 C 97 % 1010,0 hPa 0,0 l/m 0 min 0 min 8 W/m 12,9 km/h (3 Bft) 97,87 %
19.12.2018 09:20 6,6 C 6,1 C 5,6 C 97 % 1010,0 hPa 0,0 l/m 0 min 0 min 10 W/m 3,2 km/h (1 Bft) 97,87 %
19.12.2018 09:22 6,7 C 6,1 C 5,6 C 97 % 1010,0 hPa 0,0 l/m 0 min 0 min 11 W/m 3,2 km/h (1 Bft) 95,74 %
19.12.2018 09:24 6,7 C 6,1 C 5,6 C 97 % 1010,1 hPa 0,0 l/m 0 min 0 min 13 W/m 3,2 km/h (1 Bft) 97,83 %
19.12.2018 09:26 6,7 C 6,1 C 5,6 C 97 % 1010,1 hPa 0,0 l/m 0 min 0 min 15 W/m 6,4 km/h (2 Bft) 97,87 %
19.12.2018 09:28 6,8 C 6,1 C 5,6 C 97 % 1010,0 hPa 0,0 l/m 0 min 0 min 18 W/m 0,0 km/h (0 Bft) 97,87 %
19.12.2018 09:30 6,8 C 6,1 C 5,6 C 97 % 1010,1 hPa 0,0 l/m 0 min 0 min 20 W/m 0,0 km/h (0 Bft) 97,87 %
19.12.2018 09:32 6,8 C 6,7 C 5,6 C 97 % 1010,1 hPa 0,0 l/m 0 min 0 min 23 W/m 9,7 km/h (2 Bft) 97,87 %
19.12.2018 09:34 6,8 C 6,7 C 6,1 C 97 % 1010,1 hPa 0,0 l/m 0 min 0 min 28 W/m 3,2 km/h (1 Bft) 95,74 %
19.12.2018 09:36 6,8 C 6,7 C 6,1 C 97 % 1010,1 hPa 0,0 l/m 0 min 0 min 31 W/m 3,2 km/h (1 Bft) 95,65 %
19.12.2018 09:38 6,9 C 6,7 C 6,1 C 97 % 1010,2 hPa 0,0 l/m 0 min 0 min 35 W/m 0,0 km/h (0 Bft) 97,87 %
19.12.2018 09:40 6,9 C 6,7 C 6,1 C 97 % 1010,2 hPa 0,0 l/m 0 min 0 min 29 W/m 0,0 km/h (0 Bft) 97,87 %
19.12.2018 09:42 6,9 C 6,7 C 6,1 C 97 % 1010,3 hPa 0,0 l/m 0 min 0 min 27 W/m 0,0 km/h (0 Bft) 97,87 %
19.12.2018 09:44 6,9 C 6,7 C 6,1 C 97 % 1010,3 hPa 0,0 l/m 0 min 0 min 26 W/m 0,0 km/h (0 Bft) 97,87 %
19.12.2018 09:46 7,0 C 6,7 C 6,1 C 97 % 1010,3 hPa 0,0 l/m 0 min 0 min 24 W/m 0,0 km/h (0 Bft) 95,74 %
19.12.2018 09:48 7,0 C 6,7 C 6,1 C 97 % 1010,3 hPa 0,0 l/m 0 min 0 min 27 W/m 6,4 km/h (2 Bft) 97,83 %
19.12.2018 09:50 7,1 C 6,7 C 6,1 C 97 % 1010,4 hPa 0,0 l/m 0 min 0 min 27 W/m 3,2 km/h (1 Bft) 95,74 %
19.12.2018 09:52 7,1 C 6,7 C 6,1 C 97 % 1010,4 hPa 0,0 l/m 0 min 0 min 31 W/m 0,0 km/h (0 Bft) 95,74 %
19.12.2018 09:54 7,1 C 6,7 C 6,1 C 97 % 1010,5 hPa 0,0 l/m 0 min 0 min 26 W/m 0,0 km/h (0 Bft) 97,87 %
19.12.2018 09:56 7,1 C 6,7 C 6,1 C 97 % 1010,5 hPa 0,0 l/m 0 min 0 min 20 W/m 0,0 km/h (0 Bft) 97,87 %
19.12.2018 09:58 7,1 C 6,7 C 6,1 C 97 % 1010,6 hPa 0,0 l/m 0 min 0 min 19 W/m 6,4 km/h (2 Bft) 97,87 %
19.12.2018 10:00 7,1 C 6,7 C 6,1 C 97 % 1010,6 hPa 0,0 l/m 0 min 0 min 18 W/m 0,0 km/h (0 Bft) 100,00 %
19.12.2018 10:02 7,2 C 6,7 C 6,1 C 97 % 1010,6 hPa 0,0 l/m 0 min 0 min 18 W/m 9,7 km/h (2 Bft) 100,00 %
19.12.2018 10:04 7,2 C 6,7 C 6,1 C 97 % 1010,6 hPa 0,0 l/m 0 min 0 min 20 W/m 0,0 km/h (0 Bft) 100,00 %
19.12.2018 10:06 7,2 C 6,7 C 6,1 C 97 % 1010,6 hPa 0,0 l/m 0 min 0 min 24 W/m 9,7 km/h (2 Bft) 100,00 %
19.12.2018 10:08 7,2 C 6,7 C 6,1 C 97 % 1010,6 hPa 0,0 l/m 0 min 0 min 25 W/m 0,0 km/h (0 Bft) 100,00 %
19.12.2018 10:10 7,2 C 6,7 C 6,1 C 97 % 1010,7 hPa 0,0 l/m 0 min 0 min 26 W/m 0,0 km/h (0 Bft) 97,87 %
19.12.2018 10:12 7,2 C 6,7 C 6,1 C 97 % 1010,7 hPa 0,0 l/m 0 min 0 min 21 W/m 3,2 km/h (1 Bft) 97,83 %
19.12.2018 10:14 7,2 C 6,7 C 6,1 C 97 % 1010,7 hPa 0,0 l/m 0 min 0 min 23 W/m 0,0 km/h (0 Bft) 97,87 %
19.12.2018 10:16 7,2 C 6,7 C 6,1 C 97 % 1010,7 hPa 0,0 l/m 0 min 0 min 25 W/m 0,0 km/h (0 Bft) 93,62 %
19.12.2018 10:18 7,2 C 6,7 C 6,1 C 97 % 1010,7 hPa 0,0 l/m 0 min 0 min 26 W/m 0,0 km/h (0 Bft) 95,74 %
19.12.2018 10:20 7,3 C 6,7 C 6,1 C 97 % 1010,7 hPa 0,0 l/m 0 min 0 min 32 W/m 3,2 km/h (1 Bft) 91,49 %
19.12.2018 10:22 7,3 C 7,2 C 6,7 C 97 % 1010,7 hPa 0,0 l/m 0 min 0 min 38 W/m 3,2 km/h (1 Bft) 100,00 %
19.12.2018 10:24 7,3 C 7,2 C 6,7 C 97 % 1010,7 hPa 0,0 l/m 0 min 0 min 38 W/m 3,2 km/h (1 Bft) 97,83 %
19.12.2018 10:26 7,3 C 7,2 C 6,7 C 97 % 1010,7 hPa 0,0 l/m 0 min 0 min 37 W/m 0,0 km/h (0 Bft) 97,87 %
19.12.2018 10:28 7,3 C 7,2 C 6,7 C 97 % 1010,8 hPa 0,0 l/m 0 min 0 min 35 W/m 0,0 km/h (0 Bft) 97,87 %
19.12.2018 10:30 7,4 C 7,2 C 6,7 C 97 % 1010,7 hPa 0,0 l/m 0 min 0 min 46 W/m 0,0 km/h (0 Bft) 93,62 %
19.12.2018 10:32 7,4 C 7,8 C 6,7 C 97 % 1010,7 hPa 0,0 l/m 0 min 0 min 84 W/m 9,7 km/h (2 Bft) 97,87 %
19.12.2018 10:34 7,4 C 7,8 C 7,2 C 97 % 1010,8 hPa 0,0 l/m 0 min 0 min 101 W/m 0,0 km/h (0 Bft) 97,83 %
19.12.2018 10:36 7,4 C 7,8 C 7,2 C 97 % 1010,7 hPa 0,0 l/m 0 min 0 min 95 W/m 0,0 km/h (0 Bft) 95,74 %
19.12.2018 10:38 7,5 C 7,8 C 7,2 C 97 % 1010,8 hPa 0,0 l/m 0 min 0 min 103 W/m 0,0 km/h (0 Bft) 93,62 %
19.12.2018 10:40 7,6 C 7,8 C 7,2 C 97 % 1010,7 hPa 0,0 l/m 0 min 0 min 85 W/m 3,2 km/h (1 Bft) 93,62 %
19.12.2018 10:42 7,6 C 7,8 C 7,2 C 97 % 1010,7 hPa 0,0 l/m 0 min 0 min 74 W/m 3,2 km/h (1 Bft) 95,74 %
19.12.2018 10:44 7,6 C 7,8 C 7,2 C 97 % 1010,8 hPa 0,0 l/m 0 min 0 min 76 W/m 0,0 km/h (0 Bft) 95,74 %
19.12.2018 10:46 7,7 C 7,8 C 7,2 C 97 % 1010,8 hPa 0,0 l/m 0 min 0 min 88 W/m 0,0 km/h (0 Bft) 95,65 %
19.12.2018 10:48 7,7 C 7,8 C 7,2 C 97 % 1010,8 hPa 0,0 l/m 0 min 0 min 86 W/m 0,0 km/h (0 Bft) 95,74 %
19.12.2018 10:50 7,7 C 7,8 C 7,2 C 97 % 1010,7 hPa 0,0 l/m 0 min 0 min 99 W/m 0,0 km/h (0 Bft) 95,74 %
19.12.2018 10:52 7,8 C 8,9 C 7,2 C 97 % 1010,7 hPa 0,0 l/m 2 min 0 min 129 W/m 0,0 km/h (0 Bft) 93,62 %
19.12.2018 10:54 7,8 C 9,4 C 7,2 C 97 % 1010,7 hPa 0,0 l/m 2 min 0 min 139 W/m 0,0 km/h (0 Bft) 97,87 %
19.12.2018 10:56 7,9 C 10,0 C 7,2 C 97 % 1010,7 hPa 0,0 l/m 2 min 0 min 165 W/m 0,0 km/h (0 Bft) 95,74 %
19.12.2018 10:58 7,9 C 9,4 C 7,2 C 97 % 1010,6 hPa 0,0 l/m 0 min 0 min 100 W/m 0,0 km/h (0 Bft) 97,83 %
19.12.2018 11:00 8,0 C 9,4 C 7,2 C 97 % 1010,6 hPa 0,0 l/m 2 min 0 min 143 W/m 0,0 km/h (0 Bft) 97,87 %
19.12.2018 11:02 8,0 C 10,0 C 7,2 C 97 % 1010,6 hPa 0,0 l/m 2 min 0 min 155 W/m 0,0 km/h (0 Bft) 95,74 %
19.12.2018 11:04 8,1 C 10,6 C 7,8 C 97 % 1010,5 hPa 0,0 l/m 2 min 0 min 157 W/m 16,1 km/h (3 Bft) 97,87 %
19.12.2018 11:06 8,1 C 10,6 C 7,8 C 97 % 1010,5 hPa 0,0 l/m 2 min 0 min 149 W/m 3,2 km/h (1 Bft) 93,62 %
19.12.2018 11:08 8,2 C 11,1 C 7,8 C 97 % 1010,5 hPa 0,0 l/m 2 min 0 min 165 W/m 0,0 km/h (0 Bft) 97,87 %
19.12.2018 11:10 8,3 C 11,7 C 7,8 C 97 % 1010,5 hPa 0,0 l/m 2 min 0 min 208 W/m 0,0 km/h (0 Bft) 95,65 %
19.12.2018 11:12 8,3 C 12,2 C 7,8 C 97 % 1010,5 hPa 0,0 l/m 2 min 0 min 229 W/m 0,0 km/h (0 Bft) 95,74 %
19.12.2018 11:14 8,4 C 12,8 C 7,8 C 97 % 1010,5 hPa 0,0 l/m 2 min 0 min 220 W/m 0,0 km/h (0 Bft) 95,74 %
19.12.2018 11:16 8,5 C 13,3 C 7,8 C 97 % 1010,5 hPa 0,0 l/m 2 min 0 min 225 W/m 0,0 km/h (0 Bft) 97,87 %
19.12.2018 11:18 8,6 C 12,8 C 7,8 C 97 % 1010,5 hPa 0,0 l/m 2 min 0 min 231 W/m 6,4 km/h (2 Bft) 97,87 %
19.12.2018 11:20 8,7 C 12,2 C 7,8 C 97 % 1010,5 hPa 0,0 l/m 2 min 0 min 236 W/m 9,7 km/h (2 Bft) 97,87 %
19.12.2018 11:22 8,8 C 12,8 C 7,8 C 96 % 1010,5 hPa 0,0 l/m 2 min 0 min 237 W/m 12,9 km/h (3 Bft) 97,83 %
19.12.2018 11:24 8,9 C 12,8 C 7,8 C 96 % 1010,5 hPa 0,0 l/m 2 min 0 min 239 W/m 16,1 km/h (3 Bft) 100,00 %
19.12.2018 11:26 9,0 C 13,3 C 7,8 C 96 % 1010,4 hPa 0,0 l/m 2 min 0 min 241 W/m 6,4 km/h (2 Bft) 100,00 %
19.12.2018 11:28 9,1 C 13,9 C 7,8 C 96 % 1010,5 hPa 0,0 l/m 2 min 0 min 243 W/m 9,7 km/h (2 Bft) 97,87 %
19.12.2018 11:30 9,2 C 12,8 C 7,8 C 95 % 1010,4 hPa 0,0 l/m 2 min 0 min 244 W/m 9,7 km/h (2 Bft) 97,87 %
19.12.2018 11:32 9,2 C 13,9 C 7,8 C 95 % 1010,5 hPa 0,0 l/m 2 min 0 min 245 W/m 9,7 km/h (2 Bft) 100,00 %
19.12.2018 11:34 9,3 C 12,8 C 8,3 C 95 % 1010,5 hPa 0,0 l/m 2 min 0 min 247 W/m 12,9 km/h (3 Bft) 97,83 %
19.12.2018 11:36 9,4 C 12,2 C 7,8 C 94 % 1010,3 hPa 0,0 l/m 2 min 0 min 251 W/m 16,1 km/h (3 Bft) 100,00 %
19.12.2018 11:38 9,5 C 12,8 C 7,8 C 93 % 1010,3 hPa 0,0 l/m 2 min 0 min 252 W/m 12,9 km/h (3 Bft) 97,87 %
19.12.2018 11:40 9,6 C 12,8 C 7,8 C 93 % 1010,4 hPa 0,0 l/m 2 min 0 min 262 W/m 12,9 km/h (3 Bft) 100,00 %
19.12.2018 11:42 9,7 C 12,2 C 8,3 C 92 % 1010,4 hPa 0,0 l/m 2 min 0 min 257 W/m 12,9 km/h (3 Bft) 100,00 %
19.12.2018 11:44 9,8 C 11,1 C 8,3 C 91 % 1010,3 hPa 0,0 l/m 2 min 0 min 144 W/m 3,2 km/h (1 Bft) 100,00 %
19.12.2018 11:46 9,8 C 11,7 C 8,3 C 90 % 1010,3 hPa 0,0 l/m 2 min 0 min 231 W/m 12,9 km/h (3 Bft) 100,00 %
19.12.2018 11:48 9,9 C 12,2 C 8,9 C 90 % 1010,3 hPa 0,0 l/m 2 min 0 min 281 W/m 16,1 km/h (3 Bft) 97,87 %
19.12.2018 11:50 10,0 C 12,2 C 8,9 C 89 % 1010,3 hPa 0,0 l/m 2 min 0 min 262 W/m 12,9 km/h (3 Bft) 97,87 %
19.12.2018 11:52 10,0 C 11,7 C 8,9 C 89 % 1010,3 hPa 0,0 l/m 2 min 0 min 326 W/m 12,9 km/h (3 Bft) 100,00 %
19.12.2018 11:54 10,1 C 11,7 C 8,9 C 88 % 1010,2 hPa 0,0 l/m 2 min 0 min 210 W/m 12,9 km/h (3 Bft) 100,00 %
19.12.2018 11:56 10,1 C 10,6 C 8,9 C 88 % 1010,2 hPa 0,0 l/m 2 min 0 min 154 W/m 12,9 km/h (3 Bft) 100,00 %
19.12.2018 11:58 10,1 C 10,6 C 8,9 C 87 % 1010,2 hPa 0,0 l/m 0 min 0 min 127 W/m 19,3 km/h (3 Bft) 100,00 %
19.12.2018 12:00 10,2 C 10,6 C 8,9 C 86 % 1010,2 hPa 0,0 l/m 0 min 0 min 109 W/m 6,4 km/h (2 Bft) 100,00 %
19.12.2018 12:02 10,2 C 10,0 C 8,9 C 86 % 1010,2 hPa 0,0 l/m 0 min 0 min 97 W/m 19,3 km/h (3 Bft) 100,00 %
19.12.2018 12:04 10,2 C 10,0 C 8,9 C 86 % 1010,2 hPa 0,0 l/m 0 min 0 min 79 W/m 9,7 km/h (2 Bft) 100,00 %
19.12.2018 12:08 10,1 C 10,0 C 8,9 C 85 % 1010,2 hPa 0,0 l/m 0 min 0 min 90 W/m 12,9 km/h (3 Bft) 100,00 %
19.12.2018 12:10 10,1 C 10,0 C 8,9 C 85 % 1010,2 hPa 0,0 l/m 0 min 0 min 88 W/m 12,9 km/h (3 Bft) 100,00 %
19.12.2018 12:12 10,1 C 9,4 C 8,9 C 85 % 1010,2 hPa 0,0 l/m 0 min 0 min 74 W/m 9,7 km/h (2 Bft) 97,87 %
19.12.2018 12:14 10,1 C 9,4 C 8,9 C 85 % 1010,2 hPa 0,0 l/m 0 min 0 min 59 W/m 12,9 km/h (3 Bft) 100,00 %
19.12.2018 12:16 10,0 C 9,4 C 8,3 C 85 % 1010,2 hPa 0,0 l/m 0 min 0 min 51 W/m 12,9 km/h (3 Bft) 100,00 %
19.12.2018 12:18 10,0 C 9,4 C 8,3 C 85 % 1010,2 hPa 0,0 l/m 0 min 0 min 48 W/m 16,1 km/h (3 Bft) 100,00 %
19.12.2018 12:20 10,0 C 9,4 C 8,3 C 85 % 1010,2 hPa 0,0 l/m 0 min 0 min 45 W/m 16,1 km/h (3 Bft) 97,87 %
19.12.2018 12:22 9,9 C 9,4 C 8,3 C 85 % 1010,2 hPa 0,0 l/m 0 min 0 min 46 W/m 12,9 km/h (3 Bft) 97,83 %
19.12.2018 12:24 9,9 C 9,4 C 8,3 C 85 % 1010,2 hPa 0,0 l/m 0 min 0 min 47 W/m 6,4 km/h (2 Bft) 100,00 %
19.12.2018 12:26 9,9 C 9,4 C 8,3 C 85 % 1010,2 hPa 0,0 l/m 0 min 0 min 48 W/m 12,9 km/h (3 Bft) 97,87 %
19.12.2018 12:28 9,9 C 9,4 C 8,3 C 85 % 1010,2 hPa 0,0 l/m 0 min 0 min 46 W/m 9,7 km/h (2 Bft) 100,00 %
19.12.2018 12:30 9,8 C 9,4 C 8,3 C 85 % 1010,2 hPa 0,0 l/m 0 min 0 min 51 W/m 9,7 km/h (2 Bft) 100,00 %
19.12.2018 12:32 9,8 C 9,4 C 8,3 C 85 % 1010,2 hPa 0,0 l/m 0 min 0 min 55 W/m 16,1 km/h (3 Bft) 95,65 %
19.12.2018 12:34 9,8 C 9,4 C 8,3 C 85 % 1010,1 hPa 0,0 l/m 0 min 0 min 51 W/m 22,5 km/h (4 Bft) 97,87 %
19.12.2018 12:36 9,8 C 9,4 C 8,3 C 85 % 1010,1 hPa 0,0 l/m 0 min 0 min 53 W/m 16,1 km/h (3 Bft) 97,87 %
19.12.2018 12:38 9,8 C 9,4 C 8,3 C 85 % 1010,1 hPa 0,0 l/m 0 min 0 min 54 W/m 12,9 km/h (3 Bft) 95,74 %
19.12.2018 12:40 9,8 C 9,4 C 8,9 C 85 % 1010,1 hPa 0,0 l/m 0 min 0 min 62 W/m 9,7 km/h (2 Bft) 97,87 %
19.12.2018 12:42 9,8 C 9,4 C 8,9 C 85 % 1010,1 hPa 0,0 l/m 0 min 0 min 78 W/m 6,4 km/h (2 Bft) 93,62 %
19.12.2018 12:44 9,8 C 9,4 C 8,9 C 85 % 1010,1 hPa 0,0 l/m 0 min 0 min 86 W/m 12,9 km/h (3 Bft) 95,65 %
19.12.2018 12:46 9,8 C 10,0 C 8,9 C 85 % 1010,0 hPa 0,0 l/m 0 min 0 min 93 W/m 12,9 km/h (3 Bft) 97,87 %
19.12.2018 12:48 9,8 C 10,0 C 8,9 C 85 % 1010,0 hPa 0,0 l/m 0 min 0 min 102 W/m 12,9 km/h (3 Bft) 95,74 %
19.12.2018 12:50 9,8 C 10,0 C 8,9 C 85 % 1010,0 hPa 0,0 l/m 0 min 0 min 95 W/m 12,9 km/h (3 Bft) 93,62 %
19.12.2018 12:52 9,8 C 10,0 C 8,9 C 85 % 1010,0 hPa 0,0 l/m 0 min 0 min 90 W/m 9,7 km/h (2 Bft) 85,11 %
19.12.2018 12:54 9,8 C 10,0 C 8,9 C 85 % 1010,0 hPa 0,0 l/m 0 min 0 min 78 W/m 9,7 km/h (2 Bft) 95,74 %
19.12.2018 12:56 9,8 C 10,0 C 8,9 C 85 % 1009,9 hPa 0,0 l/m 0 min 0 min 74 W/m 12,9 km/h (3 Bft) 91,30 %
19.12.2018 12:58 9,8 C 10,0 C 8,9 C 85 % 1010,0 hPa 0,0 l/m 0 min 0 min 68 W/m 9,7 km/h (2 Bft) 95,74 %
19.12.2018 13:00 9,8 C 10,0 C 8,9 C 85 % 1009,9 hPa 0,0 l/m 0 min 0 min 65 W/m 22,5 km/h (4 Bft) 95,74 %
19.12.2018 13:02 9,8 C 10,0 C 8,9 C 84 % 1009,8 hPa 0,0 l/m 0 min 0 min 71 W/m 16,1 km/h (3 Bft) 95,74 %
19.12.2018 13:04 9,8 C 10,0 C 8,9 C 84 % 1009,9 hPa 0,0 l/m 0 min 0 min 73 W/m 12,9 km/h (3 Bft) 91,49 %
19.12.2018 13:06 9,8 C 10,0 C 8,9 C 84 % 1009,9 hPa 0,0 l/m 0 min 0 min 66 W/m 9,7 km/h (2 Bft) 95,74 %
19.12.2018 13:08 9,9 C 10,0 C 8,9 C 84 % 1009,9 hPa 0,0 l/m 0 min 0 min 60 W/m 12,9 km/h (3 Bft) 95,65 %
19.12.2018 13:10 9,9 C 10,0 C 8,9 C 84 % 1009,9 hPa 0,0 l/m 0 min 0 min 63 W/m 12,9 km/h (3 Bft) 95,74 %
19.12.2018 13:12 9,9 C 10,0 C 8,9 C 84 % 1009,9 hPa 0,0 l/m 0 min 0 min 72 W/m 19,3 km/h (3 Bft) 95,74 %
19.12.2018 13:14 9,9 C 10,0 C 8,9 C 84 % 1009,9 hPa 0,0 l/m 0 min 0 min 77 W/m 29,0 km/h (5 Bft) 93,62 %
19.12.2018 13:16 9,9 C 10,0 C 8,9 C 83 % 1009,9 hPa 0,0 l/m 0 min 0 min 64 W/m 16,1 km/h (3 Bft) 97,87 %
19.12.2018 13:18 9,9 C 10,0 C 8,9 C 83 % 1009,9 hPa 0,0 l/m 0 min 0 min 65 W/m 12,9 km/h (3 Bft) 95,74 %
19.12.2018 13:20 9,9 C 10,0 C 8,9 C 83 % 1009,8 hPa 0,0 l/m 0 min 0 min 84 W/m 16,1 km/h (3 Bft) 89,13 %
19.12.2018 13:22 9,9 C 10,0 C 8,9 C 83 % 1009,8 hPa 0,0 l/m 0 min 0 min 82 W/m 19,3 km/h (3 Bft) 95,74 %
19.12.2018 13:24 9,9 C 10,0 C 8,9 C 83 % 1009,8 hPa 0,0 l/m 0 min 0 min 73 W/m 16,1 km/h (3 Bft) 91,49 %
19.12.2018 13:26 10,0 C 10,0 C 8,9 C 83 % 1009,8 hPa 0,0 l/m 0 min 0 min 70 W/m 16,1 km/h (3 Bft) 93,62 %
19.12.2018 13:28 10,0 C 10,0 C 8,9 C 83 % 1009,7 hPa 0,0 l/m 0 min 0 min 61 W/m 19,3 km/h (3 Bft) 95,74 %
19.12.2018 13:30 10,0 C 10,0 C 8,9 C 83 % 1009,7 hPa 0,0 l/m 0 min 0 min 53 W/m 12,9 km/h (3 Bft) 95,74 %
19.12.2018 13:32 10,0 C 10,0 C 8,9 C 82 % 1009,8 hPa 0,0 l/m 0 min 0 min 45 W/m 19,3 km/h (3 Bft) 95,65 %
19.12.2018 13:34 10,0 C 10,0 C 8,9 C 82 % 1009,7 hPa 0,0 l/m 0 min 0 min 38 W/m 12,9 km/h (3 Bft) 97,87 %
19.12.2018 13:36 10,1 C 9,4 C 8,9 C 82 % 1009,7 hPa 0,0 l/m 0 min 0 min 36 W/m 16,1 km/h (3 Bft) 95,74 %
19.12.2018 13:38 10,0 C 9,4 C 8,9 C 82 % 1009,7 hPa 0,0 l/m 0 min 0 min 37 W/m 16,1 km/h (3 Bft) 95,74 %
19.12.2018 13:40 10,1 C 9,4 C 8,9 C 82 % 1009,7 hPa 0,0 l/m 0 min 0 min 32 W/m 19,3 km/h (3 Bft) 97,87 %
19.12.2018 13:42 10,0 C 9,4 C 8,9 C 82 % 1009,6 hPa 0,0 l/m 0 min 0 min 32 W/m 9,7 km/h (2 Bft) 97,83 %
19.12.2018 13:44 10,0 C 9,4 C 8,9 C 82 % 1009,7 hPa 0,0 l/m 0 min 0 min 31 W/m 16,1 km/h (3 Bft) 95,74 %
19.12.2018 13:46 10,0 C 9,4 C 8,9 C 82 % 1009,7 hPa 0,0 l/m 0 min 0 min 28 W/m 9,7 km/h (2 Bft) 97,87 %
19.12.2018 13:48 10,0 C 9,4 C 8,9 C 82 % 1009,7 hPa 0,0 l/m 0 min 0 min 30 W/m 16,1 km/h (3 Bft) 97,87 %
19.12.2018 13:50 10,0 C 9,4 C 8,9 C 82 % 1009,7 hPa 0,0 l/m 0 min 0 min 30 W/m 22,5 km/h (4 Bft) 97,87 %
19.12.2018 13:52 10,0 C 9,4 C 8,9 C 82 % 1009,6 hPa 0,0 l/m 0 min 0 min 32 W/m 25,7 km/h (4 Bft) 97,87 %
19.12.2018 13:54 10,0 C 9,4 C 8,9 C 82 % 1009,6 hPa 0,0 l/m 0 min 0 min 31 W/m 19,3 km/h (3 Bft) 97,83 %
19.12.2018 13:56 10,0 C 9,4 C 8,9 C 82 % 1009,7 hPa 0,0 l/m 0 min 0 min 26 W/m 25,7 km/h (4 Bft) 97,87 %
19.12.2018 13:58 10,0 C 9,4 C 8,9 C 82 % 1009,7 hPa 0,0 l/m 0 min 0 min 25 W/m 16,1 km/h (3 Bft) 97,87 %
19.12.2018 14:00 10,0 C 9,4 C 8,9 C 82 % 1009,7 hPa 0,0 l/m 0 min 0 min 26 W/m 12,9 km/h (3 Bft) 97,87 %
19.12.2018 14:02 10,0 C 9,4 C 8,9 C 82 % 1009,7 hPa 0,0 l/m 0 min 0 min 26 W/m 9,7 km/h (2 Bft) 95,74 %
19.12.2018 14:04 10,0 C 9,4 C 8,9 C 82 % 1009,7 hPa 0,0 l/m 0 min 0 min 25 W/m 16,1 km/h (3 Bft) 97,87 %
19.12.2018 14:06 10,0 C 9,4 C 8,9 C 82 % 1009,6 hPa 0,0 l/m 0 min 0 min 22 W/m 12,9 km/h (3 Bft) 95,65 %
19.12.2018 14:08 10,0 C 9,4 C 8,9 C 82 % 1009,5 hPa 0,0 l/m 0 min 0 min 23 W/m 9,7 km/h (2 Bft) 95,74 %
19.12.2018 14:10 10,0 C 9,4 C 8,9 C 82 % 1009,5 hPa 0,0 l/m 0 min 0 min 28 W/m 9,7 km/h (2 Bft) 97,87 %
19.12.2018 14:12 9,9 C 9,4 C 8,9 C 82 % 1009,6 hPa 0,0 l/m 0 min 0 min 34 W/m 12,9 km/h (3 Bft) 100,00 %
19.12.2018 14:14 10,0 C 9,4 C 8,9 C 82 % 1009,6 hPa 0,0 l/m 0 min 0 min 35 W/m 16,1 km/h (3 Bft) 100,00 %
19.12.2018 14:16 9,9 C 9,4 C 8,9 C 82 % 1009,6 hPa 0,0 l/m 0 min 0 min 33 W/m 9,7 km/h (2 Bft) 97,87 %
19.12.2018 14:18 9,9 C 9,4 C 8,9 C 82 % 1009,6 hPa 0,0 l/m 0 min 0 min 29 W/m 12,9 km/h (3 Bft) 100,00 %
19.12.2018 14:20 9,9 C 9,4 C 8,9 C 82 % 1009,6 hPa 0,0 l/m 0 min 0 min 32 W/m 19,3 km/h (3 Bft) 100,00 %
19.12.2018 14:22 9,9 C 9,4 C 8,9 C 82 % 1009,5 hPa 0,0 l/m 0 min 0 min 35 W/m 12,9 km/h (3 Bft) 100,00 %
19.12.2018 14:24 9,9 C 9,4 C 8,9 C 82 % 1009,5 hPa 0,0 l/m 0 min 0 min 35 W/m 12,9 km/h (3 Bft) 100,00 %
19.12.2018 14:26 9,9 C 9,4 C 8,9 C 82 % 1009,5 hPa 0,0 l/m 0 min 0 min 35 W/m 16,1 km/h (3 Bft) 97,87 %
19.12.2018 14:28 9,9 C 9,4 C 8,9 C 82 % 1009,5 hPa 0,0 l/m 0 min 0 min 30 W/m 19,3 km/h (3 Bft) 100,00 %
19.12.2018 14:30 9,9 C 9,4 C 8,9 C 82 % 1009,5 hPa 0,0 l/m 0 min 0 min 25 W/m 12,9 km/h (3 Bft) 97,83 %
19.12.2018 14:32 9,9 C 9,4 C 8,9 C 82 % 1009,5 hPa 0,0 l/m 0 min 0 min 24 W/m 12,9 km/h (3 Bft) 97,87 %
19.12.2018 14:34 9,9 C 9,4 C 8,9 C 82 % 1009,5 hPa 0,0 l/m 0 min 0 min 19 W/m 9,7 km/h (2 Bft) 100,00 %
19.12.2018 14:36 9,9 C 9,4 C 8,9 C 82 % 1009,5 hPa 0,0 l/m 0 min 0 min 18 W/m 3,2 km/h (1 Bft) 100,00 %
19.12.2018 14:38 9,9 C 9,4 C 8,3 C 82 % 1009,5 hPa 0,0 l/m 0 min 0 min 20 W/m 9,7 km/h (2 Bft) 100,00 %
19.12.2018 14:40 9,9 C 9,4 C 8,9 C 82 % 1009,4 hPa 0,0 l/m 0 min 0 min 25 W/m 16,1 km/h (3 Bft) 100,00 %
19.12.2018 14:42 9,9 C 9,4 C 8,9 C 82 % 1009,4 hPa 0,0 l/m 0 min 0 min 19 W/m 12,9 km/h (3 Bft) 100,00 %
19.12.2018 14:44 9,9 C 9,4 C 8,9 C 82 % 1009,4 hPa 0,0 l/m 0 min 0 min 17 W/m 12,9 km/h (3 Bft) 97,87 %
19.12.2018 14:46 9,9 C 9,4 C 8,3 C 82 % 1009,4 hPa 0,0 l/m 0 min 0 min 16 W/m 9,7 km/h (2 Bft) 100,00 %
19.12.2018 14:48 9,9 C 9,4 C 8,3 C 82 % 1009,4 hPa 0,0 l/m 0 min 0 min 18 W/m 16,1 km/h (3 Bft) 100,00 %
19.12.2018 14:50 9,9 C 9,4 C 8,3 C 82 % 1009,4 hPa 0,0 l/m 0 min 0 min 18 W/m 9,7 km/h (2 Bft) 100,00 %
19.12.2018 14:52 9,9 C 9,4 C 8,3 C 82 % 1009,4 hPa 0,0 l/m 0 min 0 min 18 W/m 12,9 km/h (3 Bft) 100,00 %
19.12.2018 14:54 9,9 C 9,4 C 8,3 C 82 % 1009,4 hPa 0,0 l/m 0 min 0 min 19 W/m 19,3 km/h (3 Bft) 100,00 %
19.12.2018 14:56 9,8 C 9,4 C 8,9 C 82 % 1009,4 hPa 0,0 l/m 0 min 0 min 18 W/m 16,1 km/h (3 Bft) 100,00 %
19.12.2018 14:58 9,8 C 9,4 C 8,3 C 82 % 1009,4 hPa 0,0 l/m 0 min 0 min 18 W/m 9,7 km/h (2 Bft) 100,00 %
19.12.2018 15:00 9,8 C 9,4 C 8,9 C 82 % 1009,4 hPa 0,0 l/m 0 min 0 min 21 W/m 16,1 km/h (3 Bft) 100,00 %
19.12.2018 15:02 9,8 C 9,4 C 8,3 C 82 % 1009,4 hPa 0,0 l/m 0 min 0 min 20 W/m 12,9 km/h (3 Bft) 100,00 %
19.12.2018 15:04 9,8 C 9,4 C 8,3 C 82 % 1009,4 hPa 0,0 l/m 0 min 0 min 26 W/m 12,9 km/h (3 Bft) 100,00 %
19.12.2018 15:06 9,8 C 8,9 C 8,3 C 82 % 1009,4 hPa 0,0 l/m 0 min 2 min 28 W/m 9,7 km/h (2 Bft) 100,00 %
19.12.2018 15:08 9,8 C 8,3 C 8,3 C 82 % 1009,4 hPa 0,0 l/m 0 min 2 min 23 W/m 16,1 km/h (3 Bft) 98,11 %
19.12.2018 15:10 9,8 C 8,3 C 7,8 C 82 % 1009,4 hPa 0,0 l/m 0 min 2 min 22 W/m 12,9 km/h (3 Bft) 95,74 %
19.12.2018 15:12 9,8 C 8,3 C 7,8 C 83 % 1009,4 hPa 0,0 l/m 0 min 0 min 21 W/m 9,7 km/h (2 Bft) 95,74 %
19.12.2018 15:14 9,8 C 8,3 C 7,8 C 83 % 1009,4 hPa 0,0 l/m 0 min 0 min 19 W/m 6,4 km/h (2 Bft) 95,74 %
19.12.2018 15:16 9,8 C 8,3 C 7,8 C 83 % 1009,4 hPa 0,0 l/m 0 min 0 min 18 W/m 9,7 km/h (2 Bft) 95,65 %
19.12.2018 15:18 9,8 C 8,9 C 7,8 C 83 % 1009,3 hPa 0,0 l/m 0 min 0 min 18 W/m 19,3 km/h (3 Bft) 95,65 %
19.12.2018 15:20 9,8 C 8,9 C 8,3 C 83 % 1009,4 hPa 0,0 l/m 0 min 0 min 21 W/m 16,1 km/h (3 Bft) 97,87 %
19.12.2018 15:22 9,7 C 8,9 C 8,3 C 83 % 1009,4 hPa 0,0 l/m 0 min 0 min 23 W/m 9,7 km/h (2 Bft) 97,87 %
19.12.2018 15:24 9,7 C 8,9 C 8,3 C 83 % 1009,4 hPa 0,0 l/m 0 min 0 min 24 W/m 9,7 km/h (2 Bft) 95,74 %
19.12.2018 15:26 9,7 C 9,4 C 8,3 C 83 % 1009,3 hPa 0,0 l/m 0 min 0 min 26 W/m 9,7 km/h (2 Bft) 93,62 %
19.12.2018 15:28 9,7 C 9,4 C 8,3 C 83 % 1009,3 hPa 0,0 l/m 0 min 0 min 28 W/m 12,9 km/h (3 Bft) 91,30 %
19.12.2018 15:30 9,7 C 9,4 C 8,3 C 83 % 1009,3 hPa 0,0 l/m 0 min 0 min 30 W/m 6,4 km/h (2 Bft) 95,74 %
19.12.2018 15:32 9,7 C 9,4 C 8,3 C 83 % 1009,3 hPa 0,0 l/m 0 min 0 min 33 W/m 6,4 km/h (2 Bft) 97,87 %
19.12.2018 15:34 9,7 C 9,4 C 8,3 C 83 % 1009,4 hPa 0,0 l/m 0 min 0 min 33 W/m 9,7 km/h (2 Bft) 93,62 %
19.12.2018 15:36 9,7 C 9,4 C 8,3 C 83 % 1009,4 hPa 0,0 l/m 0 min 0 min 32 W/m 3,2 km/h (1 Bft) 89,36 %
19.12.2018 15:38 9,7 C 9,4 C 8,3 C 83 % 1009,4 hPa 0,0 l/m 0 min 0 min 28 W/m 6,4 km/h (2 Bft) 95,74 %
19.12.2018 15:40 9,7 C 9,4 C 8,3 C 83 % 1009,4 hPa 0,0 l/m 0 min 0 min 26 W/m 3,2 km/h (1 Bft) 95,65 %
19.12.2018 15:42 9,7 C 9,4 C 8,3 C 83 % 1009,3 hPa 0,0 l/m 0 min 0 min 27 W/m 3,2 km/h (1 Bft) 95,74 %
19.12.2018 15:44 9,7 C 9,4 C 8,3 C 83 % 1009,4 hPa 0,0 l/m 0 min 0 min 26 W/m 3,2 km/h (1 Bft) 95,74 %
19.12.2018 15:46 9,7 C 9,4 C 8,3 C 83 % 1009,4 hPa 0,0 l/m 0 min 0 min 25 W/m 6,4 km/h (2 Bft) 91,49 %
19.12.2018 15:48 9,7 C 8,9 C 8,3 C 83 % 1009,4 hPa 0,0 l/m 0 min 0 min 25 W/m 6,4 km/h (2 Bft) 95,74 %
19.12.2018 15:50 9,7 C 9,4 C 8,3 C 83 % 1009,4 hPa 0,0 l/m 0 min 0 min 29 W/m 6,4 km/h (2 Bft) 95,74 %
19.12.2018 15:52 9,7 C 9,4 C 8,3 C 83 % 1009,4 hPa 0,0 l/m 2 min 0 min 34 W/m 9,7 km/h (2 Bft) 97,83 %
19.12.2018 15:54 9,7 C 9,4 C 8,3 C 83 % 1009,3 hPa 0,0 l/m 2 min 0 min 32 W/m 0,0 km/h (0 Bft) 95,74 %
19.12.2018 15:56 9,6 C 9,4 C 8,3 C 83 % 1009,4 hPa 0,0 l/m 0 min 0 min 28 W/m 0,0 km/h (0 Bft) 95,74 %
19.12.2018 15:58 9,6 C 8,9 C 8,3 C 83 % 1009,3 hPa 0,0 l/m 2 min 0 min 27 W/m 3,2 km/h (1 Bft) 97,87 %
19.12.2018 16:00 9,6 C 8,9 C 8,3 C 83 % 1009,3 hPa 0,0 l/m 0 min 0 min 23 W/m 6,4 km/h (2 Bft) 97,87 %
19.12.2018 16:02 9,6 C 8,9 C 8,3 C 83 % 1009,3 hPa 0,0 l/m 0 min 0 min 20 W/m 9,7 km/h (2 Bft) 97,22 %
19.12.2018 16:04 9,6 C 8,9 C 8,3 C 83 % 1009,2 hPa 0,0 l/m 0 min 0 min 19 W/m 12,9 km/h (3 Bft) 95,74 %
19.12.2018 16:06 9,6 C 8,9 C 8,3 C 83 % 1009,2 hPa 0,0 l/m 0 min 0 min 14 W/m 12,9 km/h (3 Bft) 96,55 %
19.12.2018 16:08 9,6 C 8,9 C 8,3 C 83 % 1009,2 hPa 0,0 l/m 0 min 0 min 12 W/m 6,4 km/h (2 Bft) 97,14 %
19.12.2018 16:10 9,6 C 8,9 C 8,3 C 83 % 1009,1 hPa 0,0 l/m 0 min 0 min 9 W/m 6,4 km/h (2 Bft) 97,92 %
19.12.2018 16:12 9,6 C 8,9 C 8,3 C 83 % 1009,2 hPa 0,0 l/m 0 min 0 min 7 W/m 12,9 km/h (3 Bft) 95,74 %
19.12.2018 16:14 9,6 C 8,9 C 8,3 C 83 % 1009,1 hPa 0,0 l/m 0 min 0 min 5 W/m 12,9 km/h (3 Bft) 97,87 %
19.12.2018 16:16 9,5 C 8,9 C 7,8 C 83 % 1009,1 hPa 0,0 l/m 0 min 0 min 5 W/m 9,7 km/h (2 Bft) 95,74 %
19.12.2018 16:18 9,5 C 8,9 C 7,8 C 83 % 1009,2 hPa 0,0 l/m 0 min 0 min 5 W/m 9,7 km/h (2 Bft) 97,83 %
19.12.2018 16:20 9,5 C 8,9 C 7,8 C 83 % 1009,1 hPa 0,0 l/m 0 min 0 min 1 W/m 9,7 km/h (2 Bft) 95,74 %
19.12.2018 16:22 9,5 C 8,9 C 7,8 C 83 % 1009,1 hPa 0,0 l/m 0 min 0 min 0 W/m 9,7 km/h (2 Bft) 95,74 %
19.12.2018 16:24 9,5 C 8,9 C 7,8 C 83 % 1009,1 hPa 0,0 l/m 0 min 0 min 0 W/m 9,7 km/h (2 Bft) 100,00 %
19.12.2018 16:26 9,5 C 8,9 C 7,8 C 83 % 1009,0 hPa 0,0 l/m 0 min 0 min 0 W/m 9,7 km/h (2 Bft) 100,00 %
19.12.2018 16:28 9,5 C 8,9 C 7,8 C 83 % 1009,0 hPa 0,0 l/m 0 min 0 min 0 W/m 9,7 km/h (2 Bft) 100,00 %
19.12.2018 16:30 9,4 C 8,9 C 7,8 C 82 % 1009,0 hPa 0,0 l/m 0 min 0 min 0 W/m 9,7 km/h (2 Bft) 97,83 %
19.12.2018 16:32 9,4 C 8,9 C 7,8 C 82 % 1009,0 hPa 0,0 l/m 0 min 0 min 0 W/m 6,4 km/h (2 Bft) 100,00 %
19.12.2018 16:34 9,4 C 8,9 C 7,8 C 82 % 1009,1 hPa 0,0 l/m 0 min 0 min 0 W/m 12,9 km/h (3 Bft) 100,00 %
19.12.2018 16:36 9,4 C 8,9 C 7,8 C 82 % 1009,1 hPa 0,0 l/m 0 min 0 min 0 W/m 16,1 km/h (3 Bft) 100,00 %
19.12.2018 16:38 9,4 C 8,9 C 7,8 C 82 % 1009,1 hPa 0,0 l/m 0 min 0 min 0 W/m 12,9 km/h (3 Bft) 95,74 %
19.12.2018 16:40 9,4 C 8,9 C 7,8 C 82 % 1009,1 hPa 0,0 l/m 0 min 0 min 0 W/m 6,4 km/h (2 Bft) 95,74 %
19.12.2018 16:42 9,4 C 8,9 C 8,3 C 82 % 1009,1 hPa 0,0 l/m 0 min 0 min 0 W/m 9,7 km/h (2 Bft) 95,65 %
19.12.2018 16:44 9,4 C 8,9 C 7,8 C 82 % 1009,2 hPa 0,0 l/m 0 min 0 min 0 W/m 6,4 km/h (2 Bft) 97,87 %
19.12.2018 16:46 9,4 C 8,9 C 7,8 C 82 % 1009,1 hPa 0,0 l/m 0 min 0 min 0 W/m 6,4 km/h (2 Bft) 97,87 %
19.12.2018 16:48 9,4 C 8,9 C 7,8 C 82 % 1009,2 hPa 0,0 l/m 0 min 0 min 0 W/m 3,2 km/h (1 Bft) 97,87 %
19.12.2018 16:50 9,4 C 8,9 C 7,8 C 82 % 1009,3 hPa 0,0 l/m 0 min 0 min 0 W/m 3,2 km/h (1 Bft) 97,87 %
19.12.2018 16:52 9,4 C 8,9 C 7,8 C 83 % 1009,2 hPa 0,0 l/m 0 min 0 min 0 W/m 9,7 km/h (2 Bft) 97,87 %
19.12.2018 16:54 9,4 C 8,9 C 7,8 C 83 % 1009,2 hPa 0,0 l/m 0 min 0 min 0 W/m 6,4 km/h (2 Bft) 97,83 %
19.12.2018 16:56 9,4 C 8,9 C 7,8 C 83 % 1009,2 hPa 0,0 l/m 0 min 0 min 0 W/m 0,0 km/h (0 Bft) 95,74 %
19.12.2018 16:58 9,3 C 8,9 C 7,8 C 82 % 1009,3 hPa 0,0 l/m 0 min 0 min 0 W/m 16,1 km/h (3 Bft) 97,87 %
19.12.2018 17:00 9,3 C 8,9 C 7,8 C 82 % 1009,4 hPa 0,0 l/m 0 min 0 min 0 W/m 19,3 km/h (3 Bft) 97,87 %
19.12.2018 17:02 9,3 C 8,9 C 7,8 C 82 % 1009,4 hPa 0,0 l/m 0 min 0 min 0 W/m 9,7 km/h (2 Bft) 87,23 %
19.12.2018 17:04 9,3 C 8,9 C 7,8 C 82 % 1009,6 hPa 0,0 l/m 0 min 0 min 0 W/m 12,9 km/h (3 Bft) 93,62 %
19.12.2018 17:06 9,3 C 8,9 C 7,8 C 83 % 1009,5 hPa 0,0 l/m 0 min 0 min 0 W/m 9,7 km/h (2 Bft) 97,83 %
19.12.2018 17:08 9,3 C 8,9 C 7,8 C 83 % 1009,6 hPa 0,0 l/m 0 min 0 min 0 W/m 9,7 km/h (2 Bft) 97,96 %
19.12.2018 17:10 9,3 C 8,9 C 7,8 C 83 % 1009,7 hPa 0,0 l/m 0 min 0 min 0 W/m 9,7 km/h (2 Bft) 89,36 %
19.12.2018 17:12 9,3 C 8,9 C 7,8 C 83 % 1009,7 hPa 0,0 l/m 0 min 0 min 0 W/m 6,4 km/h (2 Bft) 95,74 %
19.12.2018 17:14 9,3 C 8,9 C 7,8 C 83 % 1009,5 hPa 0,0 l/m 0 min 0 min 0 W/m 9,7 km/h (2 Bft) 97,87 %
19.12.2018 17:16 9,3 C 8,9 C 7,8 C 83 % 1009,5 hPa 0,0 l/m 0 min 0 min 0 W/m 6,4 km/h (2 Bft) 95,65 %
19.12.2018 17:18 9,3 C 8,9 C 7,8 C 83 % 1009,4 hPa 0,0 l/m 0 min 0 min 0 W/m 12,9 km/h (3 Bft) 95,74 %
19.12.2018 17:20 9,3 C 8,3 C 7,8 C 83 % 1009,4 hPa 0,0 l/m 0 min 0 min 0 W/m 3,2 km/h (1 Bft) 95,74 %
19.12.2018 17:22 9,3 C 8,3 C 7,8 C 83 % 1009,3 hPa 0,0 l/m 0 min 0 min 0 W/m 0,0 km/h (0 Bft) 97,87 %
19.12.2018 17:24 9,3 C 8,3 C 7,8 C 83 % 1009,3 hPa 0,0 l/m 0 min 0 min 0 W/m 0,0 km/h (0 Bft) 97,87 %
19.12.2018 17:26 9,3 C 8,3 C 7,8 C 83 % 1009,3 hPa 0,0 l/m 0 min 0 min 0 W/m 0,0 km/h (0 Bft) 97,87 %
19.12.2018 17:28 9,3 C 8,3 C 7,8 C 83 % 1009,3 hPa 0,0 l/m 0 min 0 min 0 W/m 0,0 km/h (0 Bft) 97,83 %
19.12.2018 17:30 9,3 C 8,3 C 7,8 C 83 % 1009,4 hPa 0,0 l/m 0 min 0 min 0 W/m 12,9 km/h (3 Bft) 97,87 %
19.12.2018 17:32 9,3 C 8,3 C 7,8 C 83 % 1009,4 hPa 0,0 l/m 0 min 0 min 0 W/m 9,7 km/h (2 Bft) 95,74 %
19.12.2018 17:34 9,2 C 8,3 C 7,8 C 83 % 1009,4 hPa 0,0 l/m 0 min 0 min 0 W/m 9,7 km/h (2 Bft) 93,62 %
19.12.2018 17:36 9,2 C 8,3 C 7,8 C 83 % 1009,4 hPa 0,0 l/m 0 min 0 min 0 W/m 16,1 km/h (3 Bft) 95,74 %
19.12.2018 17:38 9,2 C 8,3 C 7,8 C 83 % 1009,4 hPa 0,0 l/m 0 min 0 min 0 W/m 9,7 km/h (2 Bft) 97,87 %
19.12.2018 17:40 9,2 C 8,3 C 7,8 C 83 % 1009,4 hPa 0,0 l/m 0 min 0 min 0 W/m 6,4 km/h (2 Bft) 100,00 %
19.12.2018 17:42 9,2 C 8,3 C 7,8 C 84 % 1009,4 hPa 0,0 l/m 0 min 0 min 0 W/m 9,7 km/h (2 Bft) 97,87 %
19.12.2018 17:44 9,2 C 8,3 C 7,8 C 84 % 1009,4 hPa 0,0 l/m 0 min 0 min 0 W/m 9,7 km/h (2 Bft) 95,74 %
19.12.2018 17:46 9,2 C 8,3 C 7,8 C 84 % 1009,4 hPa 0,0 l/m 0 min 0 min 0 W/m 3,2 km/h (1 Bft) 100,00 %
19.12.2018 17:48 9,2 C 8,3 C 7,8 C 84 % 1009,4 hPa 0,0 l/m 0 min 0 min 0 W/m 9,7 km/h (2 Bft) 97,87 %
19.12.2018 17:50 9,1 C 8,3 C 7,8 C 84 % 1009,4 hPa 0,0 l/m 0 min 0 min 0 W/m 6,4 km/h (2 Bft) 91,49 %
19.12.2018 17:52 9,1 C 8,3 C 7,8 C 84 % 1009,4 hPa 0,0 l/m 0 min 0 min 0 W/m 3,2 km/h (1 Bft) 93,48 %
19.12.2018 17:54 9,1 C 8,3 C 7,8 C 84 % 1009,4 hPa 0,0 l/m 0 min 0 min 0 W/m 3,2 km/h (1 Bft) 91,49 %
19.12.2018 17:56 9,1 C 8,3 C 7,2 C 84 % 1009,4 hPa 0,0 l/m 0 min 0 min 0 W/m 0,0 km/h (0 Bft) 91,49 %
19.12.2018 17:58 9,1 C 8,3 C 7,2 C 84 % 1009,4 hPa 0,0 l/m 0 min 0 min 0 W/m 6,4 km/h (2 Bft) 89,36 %
19.12.2018 18:00 9,1 C 8,3 C 7,2 C 84 % 1009,4 hPa 0,0 l/m 0 min 2 min 0 W/m 3,2 km/h (1 Bft) 89,36 %
19.12.2018 18:02 9,1 C 7,8 C 7,2 C 84 % 1009,3 hPa 0,0 l/m 0 min 2 min 0 W/m 0,0 km/h (0 Bft) 93,62 %
19.12.2018 18:04 9,0 C 7,8 C 7,2 C 84 % 1009,3 hPa 0,0 l/m 0 min 2 min 0 W/m 0,0 km/h (0 Bft) 86,96 %
19.12.2018 18:08 9,0 C 7,8 C 7,2 C 85 % 1009,4 hPa 0,0 l/m 0 min 0 min 0 W/m 0,0 km/h (0 Bft) 86,17 %
19.12.2018 18:10 8,9 C 7,8 C 7,2 C 85 % 1009,4 hPa 0,0 l/m 0 min 0 min 0 W/m 0,0 km/h (0 Bft) 91,49 %
19.12.2018 18:12 8,9 C 7,8 C 6,7 C 85 % 1009,4 hPa 0,0 l/m 0 min 0 min 0 W/m 0,0 km/h (0 Bft) 87,23 %
19.12.2018 18:14 8,9 C 7,8 C 6,7 C 85 % 1009,4 hPa 0,0 l/m 0 min 0 min 0 W/m 0,0 km/h (0 Bft) 87,23 %
19.12.2018 18:16 8,9 C 7,8 C 6,7 C 85 % 1009,4 hPa 0,0 l/m 0 min 0 min 0 W/m 0,0 km/h (0 Bft) 97,83 %
19.12.2018 18:18 8,9 C 7,8 C 6,7 C 85 % 1009,3 hPa 0,0 l/m 0 min 0 min 0 W/m 0,0 km/h (0 Bft) 95,74 %
19.12.2018 18:20 8,8 C 7,8 C 6,7 C 85 % 1009,3 hPa 0,0 l/m 0 min 0 min 0 W/m 0,0 km/h (0 Bft) 93,62 %
19.12.2018 18:22 8,8 C 7,2 C 6,7 C 85 % 1009,3 hPa 0,0 l/m 0 min 0 min 0 W/m 0,0 km/h (0 Bft) 95,83 %
19.12.2018 18:24 8,8 C 7,2 C 6,1 C 85 % 1009,3 hPa 0,0 l/m 0 min 0 min 0 W/m 0,0 km/h (0 Bft) 95,65 %
19.12.2018 18:26 8,8 C 7,2 C 6,1 C 85 % 1009,3 hPa 0,0 l/m 0 min 0 min 0 W/m 0,0 km/h (0 Bft) 91,49 %
19.12.2018 18:28 8,7 C 7,2 C 6,1 C 85 % 1009,3 hPa 0,0 l/m 0 min 0 min 0 W/m 0,0 km/h (0 Bft) 91,49 %
19.12.2018 18:30 8,7 C 7,2 C 6,7 C 85 % 1009,2 hPa 0,0 l/m 0 min 0 min 0 W/m 0,0 km/h (0 Bft) 93,62 %
19.12.2018 18:32 8,6 C 7,2 C 6,1 C 86 % 1009,2 hPa 0,0 l/m 0 min 0 min 0 W/m 0,0 km/h (0 Bft) 93,62 %
19.12.2018 18:34 8,6 C 7,2 C 6,1 C 86 % 1009,2 hPa 0,0 l/m 0 min 0 min 0 W/m 0,0 km/h (0 Bft) 93,62 %
19.12.2018 18:36 8,5 C 7,2 C 6,1 C 86 % 1009,2 hPa 0,0 l/m 0 min 0 min 0 W/m 0,0 km/h (0 Bft) 93,48 %
19.12.2018 18:38 8,4 C 7,2 C 6,1 C 86 % 1009,2 hPa 0,0 l/m 0 min 0 min 0 W/m 12,9 km/h (3 Bft) 91,49 %
19.12.2018 18:40 8,4 C 7,2 C 6,1 C 86 % 1009,2 hPa 0,0 l/m 0 min 0 min 0 W/m 9,7 km/h (2 Bft) 87,23 %
19.12.2018 18:42 8,3 C 7,2 C 6,1 C 86 % 1009,2 hPa 0,0 l/m 0 min 0 min 0 W/m 6,4 km/h (2 Bft) 85,11 %
19.12.2018 18:44 8,3 C 7,2 C 6,1 C 86 % 1009,3 hPa 0,0 l/m 0 min 0 min 0 W/m 3,2 km/h (1 Bft) 91,49 %
19.12.2018 18:46 8,3 C 7,2 C 6,1 C 86 % 1009,3 hPa 0,0 l/m 0 min 0 min 0 W/m 9,7 km/h (2 Bft) 89,13 %
19.12.2018 18:48 8,2 C 7,2 C 6,1 C 86 % 1009,3 hPa 0,0 l/m 0 min 0 min 0 W/m 0,0 km/h (0 Bft) 95,74 %
19.12.2018 18:50 8,2 C 6,7 C 6,1 C 86 % 1009,3 hPa 0,0 l/m 0 min 0 min 0 W/m 0,0 km/h (0 Bft) 97,87 %
19.12.2018 18:52 8,1 C 6,7 C 6,1 C 86 % 1009,4 hPa 0,0 l/m 0 min 0 min 0 W/m 0,0 km/h (0 Bft) 91,49 %
19.12.2018 18:54 8,1 C 6,7 C 6,1 C 86 % 1009,3 hPa 0,0 l/m 0 min 0 min 0 W/m 0,0 km/h (0 Bft) 82,98 %
19.12.2018 18:56 8,1 C 6,7 C 6,1 C 87 % 1009,3 hPa 0,0 l/m 0 min 0 min 0 W/m 0,0 km/h (0 Bft) 95,74 %
19.12.2018 18:58 8,0 C 6,7 C 5,6 C 87 % 1009,4 hPa 0,0 l/m 0 min 0 min 0 W/m 0,0 km/h (0 Bft) 91,49 %
19.12.2018 19:00 7,9 C 6,7 C 5,6 C 87 % 1009,4 hPa 0,0 l/m 0 min 0 min 0 W/m 0,0 km/h (0 Bft) 89,13 %
19.12.2018 19:02 7,9 C 6,7 C 5,6 C 87 % 1009,4 hPa 0,0 l/m 0 min 0 min 0 W/m 0,0 km/h (0 Bft) 89,36 %
19.12.2018 19:04 7,9 C 6,7 C 5,6 C 87 % 1009,5 hPa 0,0 l/m 0 min 0 min 0 W/m 0,0 km/h (0 Bft) 97,87 %
19.12.2018 19:06 7,8 C 6,7 C 5,6 C 87 % 1009,5 hPa 0,0 l/m 0 min 0 min 0 W/m 0,0 km/h (0 Bft) 97,87 %
19.12.2018 19:08 7,8 C 6,7 C 5,6 C 87 % 1009,5 hPa 0,0 l/m 0 min 0 min 0 W/m 0,0 km/h (0 Bft) 97,87 %
19.12.2018 19:10 7,8 C 6,7 C 5,6 C 87 % 1009,5 hPa 0,0 l/m 0 min 0 min 0 W/m 0,0 km/h (0 Bft) 95,65 %
19.12.2018 19:12 7,7 C 6,7 C 5,6 C 87 % 1009,5 hPa 0,0 l/m 0 min 0 min 0 W/m 0,0 km/h (0 Bft) 100,00 %
19.12.2018 19:14 7,7 C 6,7 C 5,6 C 87 % 1009,5 hPa 0,0 l/m 0 min 0 min 0 W/m 0,0 km/h (0 Bft) 100,00 %
19.12.2018 19:16 7,7 C 6,7 C 5,6 C 87 % 1009,5 hPa 0,0 l/m 0 min 0 min 0 W/m 0,0 km/h (0 Bft) 100,00 %
19.12.2018 19:18 7,6 C 6,1 C 5,6 C 87 % 1009,5 hPa 0,0 l/m 0 min 0 min 0 W/m 0,0 km/h (0 Bft) 100,00 %
19.12.2018 19:20 7,6 C 6,1 C 5,6 C 88 % 1009,5 hPa 0,0 l/m 0 min 0 min 0 W/m 0,0 km/h (0 Bft) 100,00 %
19.12.2018 19:22 7,6 C 6,1 C 5,6 C 88 % 1009,5 hPa 0,0 l/m 0 min 0 min 0 W/m 0,0 km/h (0 Bft) 100,00 %
19.12.2018 19:24 7,5 C 6,1 C 5,6 C 88 % 1009,5 hPa 0,0 l/m 0 min 0 min 0 W/m 0,0 km/h (0 Bft) 100,00 %
19.12.2018 19:26 7,5 C 6,7 C 5,6 C 88 % 1009,5 hPa 0,0 l/m 0 min 0 min 0 W/m 0,0 km/h (0 Bft) 97,87 %
19.12.2018 19:28 7,4 C 6,7 C 5,6 C 88 % 1009,5 hPa 0,0 l/m 0 min 0 min 0 W/m 3,2 km/h (1 Bft) 100,00 %
19.12.2018 19:30 7,4 C 6,7 C 5,6 C 88 % 1009,5 hPa 0,0 l/m 0 min 0 min 0 W/m 3,2 km/h (1 Bft) 100,00 %
19.12.2018 19:32 7,4 C 6,7 C 5,6 C 88 % 1009,5 hPa 0,0 l/m 0 min 0 min 0 W/m 0,0 km/h (0 Bft) 100,00 %
19.12.2018 19:34 7,3 C 6,1 C 5,6 C 89 % 1009,5 hPa 0,0 l/m 0 min 0 min 0 W/m 3,2 km/h (1 Bft) 100,00 %
19.12.2018 19:36 7,3 C 6,7 C 5,6 C 89 % 1009,5 hPa 0,0 l/m 0 min 0 min 0 W/m 9,7 km/h (2 Bft) 97,87 %
19.12.2018 19:38 7,3 C 6,1 C 5,6 C 89 % 1009,6 hPa 0,0 l/m 0 min 0 min 0 W/m 9,7 km/h (2 Bft) 97,87 %
19.12.2018 19:40 7,2 C 6,1 C 5,6 C 89 % 1009,5 hPa 0,0 l/m 0 min 0 min 0 W/m 0,0 km/h (0 Bft) 100,00 %
19.12.2018 19:42 7,2 C 6,1 C 5,6 C 89 % 1009,6 hPa 0,0 l/m 0 min 0 min 0 W/m 6,4 km/h (2 Bft) 100,00 %
19.12.2018 19:44 7,2 C 6,1 C 5,6 C 89 % 1009,6 hPa 0,0 l/m 0 min 0 min 0 W/m 3,2 km/h (1 Bft) 97,87 %
19.12.2018 19:46 7,2 C 6,1 C 5,6 C 89 % 1009,6 hPa 0,0 l/m 0 min 0 min 0 W/m 3,2 km/h (1 Bft) 97,83 %
19.12.2018 19:48 7,1 C 6,1 C 5,6 C 89 % 1009,7 hPa 0,0 l/m 0 min 0 min 0 W/m 9,7 km/h (2 Bft) 100,00 %
19.12.2018 19:50 7,1 C 6,1 C 5,6 C 89 % 1009,6 hPa 0,0 l/m 0 min 0 min 0 W/m 12,9 km/h (3 Bft) 100,00 %
19.12.2018 19:52 7,1 C 6,1 C 5,6 C 89 % 1009,7 hPa 0,0 l/m 0 min 0 min 0 W/m 9,7 km/h (2 Bft) 100,00 %
19.12.2018 19:54 7,1 C 6,1 C 5,6 C 89 % 1009,7 hPa 0,0 l/m 0 min 0 min 0 W/m 3,2 km/h (1 Bft) 100,00 %
19.12.2018 19:56 7,1 C 6,1 C 5,6 C 89 % 1009,6 hPa 0,0 l/m 0 min 0 min 0 W/m 6,4 km/h (2 Bft) 97,87 %
19.12.2018 19:58 7,0 C 6,1 C 5,6 C 89 % 1009,5 hPa 0,0 l/m 0 min 0 min 0 W/m 0,0 km/h (0 Bft) 100,00 %
19.12.2018 20:00 7,0 C 6,1 C 5,6 C 89 % 1009,5 hPa 0,0 l/m 0 min 0 min 0 W/m 0,0 km/h (0 Bft) 100,00 %
19.12.2018 20:02 7,0 C 6,1 C 5,6 C 89 % 1009,4 hPa 0,0 l/m 0 min 0 min 0 W/m 6,4 km/h (2 Bft) 100,00 %
19.12.2018 20:04 6,9 C 6,1 C 5,0 C 89 % 1009,4 hPa 0,0 l/m 0 min 0 min 0 W/m 0,0 km/h (0 Bft) 97,87 %
19.12.2018 20:06 6,9 C 6,1 C 5,0 C 89 % 1009,4 hPa 0,0 l/m 0 min 0 min 0 W/m 3,2 km/h (1 Bft) 100,00 %
19.12.2018 20:08 6,9 C 6,1 C 5,0 C 90 % 1009,4 hPa 0,0 l/m 0 min 0 min 0 W/m 3,2 km/h (1 Bft) 91,30 %
19.12.2018 20:10 6,9 C 6,1 C 5,0 C 90 % 1009,4 hPa 0,0 l/m 0 min 0 min 0 W/m 6,4 km/h (2 Bft) 95,74 %
19.12.2018 20:12 6,9 C 6,1 C 5,0 C 90 % 1009,4 hPa 0,0 l/m 0 min 0 min 0 W/m 3,2 km/h (1 Bft) 100,00 %
19.12.2018 20:14 6,8 C 6,1 C 5,0 C 90 % 1009,4 hPa 0,0 l/m 0 min 0 min 0 W/m 0,0 km/h (0 Bft) 97,87 %
19.12.2018 20:16 6,8 C 6,1 C 5,0 C 90 % 1009,4 hPa 0,0 l/m 0 min 0 min 0 W/m 3,2 km/h (1 Bft) 97,87 %
19.12.2018 20:18 6,8 C 6,1 C 5,0 C 90 % 1009,4 hPa 0,0 l/m 0 min 0 min 0 W/m 9,7 km/h (2 Bft) 95,74 %
19.12.2018 20:20 6,8 C 6,1 C 5,0 C 90 % 1009,4 hPa 0,0 l/m 0 min 0 min 0 W/m 0,0 km/h (0 Bft) 95,65 %
19.12.2018 20:22 6,8 C 6,1 C 5,0 C 90 % 1009,4 hPa 0,0 l/m 0 min 0 min 0 W/m 3,2 km/h (1 Bft) 95,74 %
19.12.2018 20:24 6,8 C 6,1 C 5,0 C 90 % 1009,4 hPa 0,0 l/m 0 min 0 min 0 W/m 0,0 km/h (0 Bft) 97,87 %
19.12.2018 20:26 6,8 C 6,1 C 5,0 C 90 % 1009,4 hPa 0,0 l/m 0 min 0 min 0 W/m 0,0 km/h (0 Bft) 97,87 %
19.12.2018 20:28 6,7 C 6,1 C 5,0 C 90 % 1009,4 hPa 0,0 l/m 0 min 0 min 0 W/m 0,0 km/h (0 Bft) 97,87 %
19.12.2018 20:30 6,7 C 6,1 C 5,0 C 90 % 1009,4 hPa 0,0 l/m 0 min 0 min 0 W/m 0,0 km/h (0 Bft) 97,87 %
19.12.2018 20:32 6,7 C 6,1 C 5,0 C 90 % 1009,4 hPa 0,0 l/m 0 min 0 min 0 W/m 0,0 km/h (0 Bft) 97,83 %
19.12.2018 20:34 6,7 C 6,1 C 5,0 C 90 % 1009,4 hPa 0,0 l/m 0 min 0 min 0 W/m 0,0 km/h (0 Bft) 95,74 %
19.12.2018 20:36 6,7 C 6,1 C 5,0 C 90 % 1009,4 hPa 0,0 l/m 0 min 0 min 0 W/m 0,0 km/h (0 Bft) 93,62 %
19.12.2018 20:38 6,7 C 6,1 C 5,0 C 90 % 1009,3 hPa 0,0 l/m 0 min 0 min 0 W/m 0,0 km/h (0 Bft) 95,74 %
19.12.2018 20:40 6,7 C 6,1 C 5,0 C 90 % 1009,4 hPa 0,0 l/m 0 min 0 min 0 W/m 0,0 km/h (0 Bft) 93,62 %
19.12.2018 20:42 6,6 C 5,6 C 5,0 C 91 % 1009,3 hPa 0,0 l/m 0 min 0 min 0 W/m 0,0 km/h (0 Bft) 93,62 %
19.12.2018 20:44 6,6 C 5,6 C 5,0 C 91 % 1009,3 hPa 0,0 l/m 0 min 0 min 0 W/m 0,0 km/h (0 Bft) 91,30 %
19.12.2018 20:46 6,6 C 5,6 C 5,0 C 91 % 1009,2 hPa 0,0 l/m 0 min 0 min 0 W/m 0,0 km/h (0 Bft) 91,49 %
19.12.2018 20:48 6,6 C 5,6 C 5,0 C 91 % 1009,3 hPa 0,0 l/m 0 min 0 min 0 W/m 0,0 km/h (0 Bft) 95,74 %
19.12.2018 20:50 6,6 C 5,6 C 5,0 C 91 % 1009,3 hPa 0,0 l/m 0 min 0 min 0 W/m 0,0 km/h (0 Bft) 91,49 %
19.12.2018 20:52 6,6 C 6,1 C 5,0 C 91 % 1009,4 hPa 0,0 l/m 0 min 0 min 0 W/m 0,0 km/h (0 Bft) 91,49 %
19.12.2018 20:54 6,6 C 5,6 C 5,0 C 91 % 1009,4 hPa 0,0 l/m 0 min 0 min 0 W/m 0,0 km/h (0 Bft) 93,48 %
19.12.2018 20:56 6,5 C 5,6 C 5,0 C 91 % 1009,4 hPa 0,0 l/m 0 min 0 min 0 W/m 0,0 km/h (0 Bft) 93,62 %
19.12.2018 20:58 6,5 C 5,6 C 5,0 C 91 % 1009,4 hPa 0,0 l/m 0 min 0 min 0 W/m 0,0 km/h (0 Bft) 93,62 %
19.12.2018 21:00 6,5 C 5,6 C 4,4 C 91 % 1009,4 hPa 0,0 l/m 0 min 0 min 0 W/m 0,0 km/h (0 Bft) 82,98 %
19.12.2018 21:02 6,5 C 5,6 C 4,4 C 91 % 1009,4 hPa 0,0 l/m 0 min 0 min 0 W/m 0,0 km/h (0 Bft) 89,36 %
19.12.2018 21:04 6,4 C 5,6 C 4,4 C 91 % 1009,4 hPa 0,0 l/m 0 min 0 min 0 W/m 0,0 km/h (0 Bft) 87,23 %
19.12.2018 21:06 6,4 C 5,6 C 4,4 C 91 % 1009,5 hPa 0,0 l/m 0 min 0 min 0 W/m 0,0 km/h (0 Bft) 82,61 %
19.12.2018 21:08 6,4 C 5,6 C 4,4 C 91 % 1009,5 hPa 0,0 l/m 0 min 0 min 0 W/m 3,2 km/h (1 Bft) 89,36 %
19.12.2018 21:10 6,4 C 5,6 C 4,4 C 91 % 1009,5 hPa 0,0 l/m 0 min 0 min 0 W/m 0,0 km/h (0 Bft) 80,85 %
19.12.2018 21:12 6,4 C 5,6 C 4,4 C 91 % 1009,5 hPa 0,0 l/m 0 min 0 min 0 W/m 0,0 km/h (0 Bft) 78,72 %
19.12.2018 21:14 6,4 C 5,6 C 4,4 C 91 % 1009,5 hPa 0,0 l/m 0 min 0 min 0 W/m 0,0 km/h (0 Bft) 87,23 %
19.12.2018 21:16 6,4 C 5,6 C 4,4 C 91 % 1009,5 hPa 0,0 l/m 0 min 0 min 0 W/m 0,0 km/h (0 Bft) 82,98 %
19.12.2018 21:18 6,4 C 5,6 C 4,4 C 91 % 1009,5 hPa 0,0 l/m 0 min 0 min 0 W/m 6,4 km/h (2 Bft) 86,96 %
19.12.2018 21:20 6,3 C 5,6 C 5,0 C 91 % 1009,5 hPa 0,0 l/m 0 min 0 min 0 W/m 3,2 km/h (1 Bft) 78,72 %
19.12.2018 21:22 6,3 C 5,6 C 5,0 C 91 % 1009,5 hPa 0,0 l/m 0 min 0 min 0 W/m 0,0 km/h (0 Bft) 82,98 %
19.12.2018 21:24 6,3 C 5,6 C 5,0 C 91 % 1009,4 hPa 0,0 l/m 0 min 0 min 0 W/m 0,0 km/h (0 Bft) 89,36 %
19.12.2018 21:26 6,3 C 5,6 C 5,0 C 91 % 1009,4 hPa 0,0 l/m 0 min 0 min 0 W/m 0,0 km/h (0 Bft) 76,60 %
19.12.2018 21:28 6,3 C 5,6 C 5,0 C 91 % 1009,4 hPa 0,0 l/m 0 min 0 min 0 W/m 0,0 km/h (0 Bft) 93,62 %
19.12.2018 21:30 6,2 C 5,6 C 4,4 C 91 % 1009,4 hPa 0,0 l/m 0 min 0 min 0 W/m 0,0 km/h (0 Bft) 84,78 %
19.12.2018 21:32 6,2 C 5,6 C 4,4 C 91 % 1009,4 hPa 0,0 l/m 0 min 0 min 0 W/m 0,0 km/h (0 Bft) 82,98 %
19.12.2018 21:34 6,2 C 5,6 C 5,0 C 92 % 1009,4 hPa 0,0 l/m 0 min 0 min 0 W/m 0,0 km/h (0 Bft) 89,36 %
19.12.2018 21:36 6,2 C 5,6 C 4,4 C 92 % 1009,3 hPa 0,0 l/m 0 min 0 min 0 W/m 0,0 km/h (0 Bft) 87,23 %
19.12.2018 21:38 6,2 C 5,6 C 4,4 C 92 % 1009,4 hPa 0,0 l/m 0 min 0 min 0 W/m 0,0 km/h (0 Bft) 89,36 %
19.12.2018 21:40 6,2 C 6,1 C 5,0 C 92 % 1009,4 hPa 0,0 l/m 0 min 0 min 0 W/m 0,0 km/h (0 Bft) 91,49 %
19.12.2018 21:42 6,2 C 6,1 C 5,0 C 92 % 1009,4 hPa 0,0 l/m 0 min 0 min 0 W/m 0,0 km/h (0 Bft) 91,30 %
19.12.2018 21:44 6,2 C 6,1 C 5,0 C 92 % 1009,4 hPa 0,0 l/m 0 min 0 min 0 W/m 0,0 km/h (0 Bft) 87,23 %
19.12.2018 21:46 6,2 C 6,1 C 5,0 C 92 % 1009,5 hPa 0,0 l/m 0 min 0 min 0 W/m 0,0 km/h (0 Bft) 91,49 %
19.12.2018 21:48 6,2 C 6,1 C 5,0 C 92 % 1009,5 hPa 0,0 l/m 0 min 0 min 0 W/m 0,0 km/h (0 Bft) 85,11 %
19.12.2018 21:50 6,2 C 5,6 C 5,0 C 92 % 1009,5 hPa 0,0 l/m 0 min 0 min 0 W/m 0,0 km/h (0 Bft) 91,49 %
19.12.2018 21:52 6,2 C 5,6 C 5,0 C 92 % 1009,5 hPa 0,0 l/m 0 min 0 min 0 W/m 0,0 km/h (0 Bft) 97,87 %
19.12.2018 21:54 6,2 C 5,6 C 5,0 C 92 % 1009,5 hPa 0,0 l/m 0 min 0 min 0 W/m 0,0 km/h (0 Bft) 86,96 %
19.12.2018 21:56 6,2 C 5,6 C 5,0 C 92 % 1009,4 hPa 0,0 l/m 0 min 0 min 0 W/m 0,0 km/h (0 Bft) 100,00 %
19.12.2018 21:58 6,2 C 5,6 C 5,0 C 92 % 1009,5 hPa 0,0 l/m 0 min 0 min 0 W/m 0,0 km/h (0 Bft) 100,00 %
19.12.2018 22:00 6,2 C 5,6 C 5,0 C 92 % 1009,4 hPa 0,0 l/m 0 min 0 min 0 W/m 3,2 km/h (1 Bft) 100,00 %
19.12.2018 22:02 6,2 C 5,6 C 5,0 C 93 % 1009,4 hPa 0,0 l/m 0 min 0 min 0 W/m 3,2 km/h (1 Bft) 97,87 %
19.12.2018 22:04 6,2 C 5,6 C 5,0 C 93 % 1009,4 hPa 0,0 l/m 0 min 0 min 0 W/m 0,0 km/h (0 Bft) 97,87 %
19.12.2018 22:06 6,2 C 5,6 C 5,0 C 93 % 1009,3 hPa 0,0 l/m 0 min 0 min 0 W/m 0,0 km/h (0 Bft) 97,83 %
19.12.2018 22:08 6,2 C 5,6 C 5,0 C 93 % 1009,4 hPa 0,0 l/m 0 min 0 min 0 W/m 0,0 km/h (0 Bft) 97,87 %
19.12.2018 22:10 6,2 C 5,6 C 5,0 C 92 % 1009,4 hPa 0,0 l/m 0 min 0 min 0 W/m 0,0 km/h (0 Bft) 100,00 %
19.12.2018 22:12 6,2 C 5,6 C 5,0 C 93 % 1009,4 hPa 0,0 l/m 0 min 0 min 0 W/m 0,0 km/h (0 Bft) 100,00 %
19.12.2018 22:14 6,2 C 5,6 C 5,0 C 93 % 1009,3 hPa 0,0 l/m 0 min 0 min 0 W/m 0,0 km/h (0 Bft) 100,00 %
19.12.2018 22:16 6,2 C 5,6 C 5,0 C 93 % 1009,3 hPa 0,0 l/m 0 min 0 min 0 W/m 0,0 km/h (0 Bft) 100,00 %
19.12.2018 22:18 6,2 C 5,6 C 5,0 C 93 % 1009,3 hPa 0,0 l/m 0 min 0 min 0 W/m 0,0 km/h (0 Bft) 100,00 %
19.12.2018 22:20 6,2 C 6,1 C 5,0 C 93 % 1009,3 hPa 0,0 l/m 0 min 0 min 0 W/m 0,0 km/h (0 Bft) 97,87 %
19.12.2018 22:22 6,2 C 6,1 C 5,0 C 93 % 1009,3 hPa 0,0 l/m 0 min 0 min 0 W/m 0,0 km/h (0 Bft) 97,87 %
19.12.2018 22:24 6,2 C 6,1 C 5,0 C 93 % 1009,3 hPa 0,0 l/m 0 min 0 min 0 W/m 0,0 km/h (0 Bft) 100,00 %
19.12.2018 22:26 6,3 C 6,1 C 5,0 C 93 % 1009,4 hPa 0,0 l/m 0 min 0 min 0 W/m 0,0 km/h (0 Bft) 100,00 %
19.12.2018 22:28 6,3 C 5,6 C 5,0 C 93 % 1009,3 hPa 0,0 l/m 0 min 0 min 0 W/m 0,0 km/h (0 Bft) 100,00 %
19.12.2018 22:30 6,2 C 5,6 C 5,0 C 93 % 1009,3 hPa 0,0 l/m 0 min 0 min 0 W/m 0,0 km/h (0 Bft) 100,00 %
19.12.2018 22:32 6,3 C 5,6 C 5,0 C 93 % 1009,3 hPa 0,0 l/m 0 min 0 min 0 W/m 0,0 km/h (0 Bft) 100,00 %
19.12.2018 22:34 6,3 C 5,6 C 5,0 C 93 % 1009,3 hPa 0,0 l/m 0 min 0 min 0 W/m 0,0 km/h (0 Bft) 100,00 %
19.12.2018 22:36 6,3 C 5,6 C 5,0 C 93 % 1009,3 hPa 0,0 l/m 0 min 0 min 0 W/m 0,0 km/h (0 Bft) 100,00 %
19.12.2018 22:38 6,3 C 5,6 C 5,0 C 93 % 1009,3 hPa 0,0 l/m 0 min 0 min 0 W/m 3,2 km/h (1 Bft) 100,00 %
19.12.2018 22:40 6,3 C 5,6 C 5,0 C 93 % 1009,3 hPa 0,0 l/m 0 min 0 min 0 W/m 0,0 km/h (0 Bft) 97,83 %
19.12.2018 22:42 6,3 C 5,6 C 4,4 C 93 % 1009,3 hPa 0,0 l/m 0 min 0 min 0 W/m 0,0 km/h (0 Bft) 97,87 %
19.12.2018 22:44 6,2 C 5,6 C 5,0 C 93 % 1009,3 hPa 0,0 l/m 0 min 0 min 0 W/m 0,0 km/h (0 Bft) 100,00 %
19.12.2018 22:46 6,2 C 5,6 C 5,0 C 93 % 1009,3 hPa 0,0 l/m 0 min 0 min 0 W/m 0,0 km/h (0 Bft) 100,00 %
19.12.2018 22:48 6,2 C 5,6 C 5,0 C 93 % 1009,4 hPa 0,0 l/m 0 min 0 min 0 W/m 0,0 km/h (0 Bft) 100,00 %
19.12.2018 22:50 6,2 C 5,6 C 5,0 C 93 % 1009,4 hPa 0,0 l/m 0 min 0 min 0 W/m 0,0 km/h (0 Bft) 100,00 %
19.12.2018 22:52 6,2 C 5,6 C 5,0 C 93 % 1009,3 hPa 0,0 l/m 0 min 0 min 0 W/m 3,2 km/h (1 Bft) 100,00 %
19.12.2018 22:54 6,3 C 5,6 C 5,0 C 93 % 1009,4 hPa 0,0 l/m 0 min 0 min 0 W/m 0,0 km/h (0 Bft) 100,00 %
19.12.2018 22:56 6,3 C 6,1 C 5,0 C 93 % 1009,4 hPa 0,0 l/m 0 min 0 min 0 W/m 0,0 km/h (0 Bft) 100,00 %
19.12.2018 22:58 6,3 C 6,1 C 5,0 C 93 % 1009,4 hPa 0,0 l/m 0 min 0 min 0 W/m 0,0 km/h (0 Bft) 100,00 %
19.12.2018 23:00 6,3 C 6,1 C 5,0 C 93 % 1009,4 hPa 0,0 l/m 0 min 0 min 0 W/m 0,0 km/h (0 Bft) 100,00 %
19.12.2018 23:02 6,3 C 6,1 C 5,0 C 93 % 1009,4 hPa 0,0 l/m 0 min 0 min 0 W/m 0,0 km/h (0 Bft) 97,87 %
19.12.2018 23:04 6,3 C 6,1 C 5,0 C 93 % 1009,3 hPa 0,0 l/m 0 min 0 min 0 W/m 0,0 km/h (0 Bft) 100,00 %
19.12.2018 23:06 6,3 C 6,1 C 5,0 C 93 % 1009,3 hPa 0,0 l/m 0 min 0 min 0 W/m 0,0 km/h (0 Bft) 100,00 %
19.12.2018 23:08 6,3 C 6,1 C 5,0 C 93 % 1009,4 hPa 0,0 l/m 0 min 0 min 0 W/m 0,0 km/h (0 Bft) 100,00 %
19.12.2018 23:10 6,3 C 6,1 C 5,0 C 93 % 1009,4 hPa 0,0 l/m 0 min 0 min 0 W/m 0,0 km/h (0 Bft) 97,87 %
19.12.2018 23:12 6,3 C 6,1 C 5,0 C 93 % 1009,5 hPa 0,0 l/m 0 min 0 min 0 W/m 0,0 km/h (0 Bft) 100,00 %
19.12.2018 23:14 6,3 C 6,1 C 5,0 C 93 % 1009,5 hPa 0,0 l/m 0 min 0 min 0 W/m 0,0 km/h (0 Bft) 100,00 %
19.12.2018 23:16 6,3 C 5,6 C 5,0 C 93 % 1009,5 hPa 0,0 l/m 0 min 0 min 0 W/m 0,0 km/h (0 Bft) 97,87 %
19.12.2018 23:18 6,3 C 5,6 C 5,0 C 93 % 1009,4 hPa 0,0 l/m 0 min 0 min 0 W/m 0,0 km/h (0 Bft) 97,87 %
19.12.2018 23:20 6,3 C 5,6 C 5,0 C 93 % 1009,4 hPa 0,0 l/m 0 min 0 min 0 W/m 0,0 km/h (0 Bft) 97,87 %
19.12.2018 23:22 6,3 C 5,6 C 5,0 C 94 % 1009,4 hPa 0,0 l/m 0 min 0 min 0 W/m 0,0 km/h (0 Bft) 97,87 %
19.12.2018 23:24 6,3 C 5,6 C 4,4 C 94 % 1009,4 hPa 0,0 l/m 0 min 0 min 0 W/m 0,0 km/h (0 Bft) 95,74 %
19.12.2018 23:26 6,3 C 5,6 C 5,0 C 94 % 1009,4 hPa 0,0 l/m 0 min 0 min 0 W/m 0,0 km/h (0 Bft) 95,74 %
19.12.2018 23:28 6,3 C 5,6 C 5,0 C 94 % 1009,4 hPa 0,0 l/m 0 min 0 min 0 W/m 0,0 km/h (0 Bft) 93,62 %
19.12.2018 23:30 6,3 C 6,1 C 5,0 C 94 % 1009,4 hPa 0,0 l/m 0 min 0 min 0 W/m 0,0 km/h (0 Bft) 95,74 %
19.12.2018 23:32 6,3 C 6,1 C 5,0 C 94 % 1009,3 hPa 0,0 l/m 0 min 0 min 0 W/m 0,0 km/h (0 Bft) 95,74 %
19.12.2018 23:34 6,3 C 6,1 C 5,0 C 94 % 1009,3 hPa 0,0 l/m 0 min 0 min 0 W/m 0,0 km/h (0 Bft) 95,74 %
19.12.2018 23:36 6,3 C 6,1 C 5,0 C 94 % 1009,3 hPa 0,0 l/m 0 min 0 min 0 W/m 0,0 km/h (0 Bft) 93,62 %
19.12.2018 23:38 6,3 C 6,1 C 5,0 C 94 % 1009,3 hPa 0,0 l/m 0 min 0 min 0 W/m 0,0 km/h (0 Bft) 95,65 %
19.12.2018 23:40 6,4 C 6,1 C 5,0 C 94 % 1009,3 hPa 0,0 l/m 0 min 0 min 0 W/m 0,0 km/h (0 Bft) 95,74 %
19.12.2018 23:42 6,4 C 6,1 C 5,0 C 94 % 1009,3 hPa 0,0 l/m 0 min 0 min 0 W/m 0,0 km/h (0 Bft) 95,74 %
19.12.2018 23:44 6,4 C 6,1 C 5,0 C 94 % 1009,3 hPa 0,0 l/m 0 min 0 min 0 W/m 0,0 km/h (0 Bft) 95,74 %
19.12.2018 23:46 6,4 C 6,1 C 5,0 C 94 % 1009,3 hPa 0,0 l/m 0 min 0 min 0 W/m 0,0 km/h (0 Bft) 93,62 %
19.12.2018 23:48 6,4 C 6,1 C 5,0 C 94 % 1009,3 hPa 0,0 l/m 0 min 0 min 0 W/m 0,0 km/h (0 Bft) 91,49 %
19.12.2018 23:50 6,4 C 6,1 C 5,0 C 94 % 1009,2 hPa 0,0 l/m 0 min 0 min 0 W/m 0,0 km/h (0 Bft) 93,48 %
19.12.2018 23:52 6,4 C 6,1 C 5,0 C 94 % 1009,2 hPa 0,0 l/m 0 min 0 min 0 W/m 0,0 km/h (0 Bft) 89,36 %
19.12.2018 23:54 6,4 C 6,1 C 5,0 C 94 % 1009,2 hPa 0,0 l/m 0 min 0 min 0 W/m 0,0 km/h (0 Bft) 91,49 %
19.12.2018 23:56 6,4 C 6,1 C 5,0 C 94 % 1009,2 hPa 0,0 l/m 0 min 0 min 0 W/m 0,0 km/h (0 Bft) 93,62 %
19.12.2018 23:58 6,4 C 6,1 C 5,0 C 94 % 1009,2 hPa 0,0 l/m 0 min 0 min 0 W/m 0,0 km/h (0 Bft) 91,49 %
_ Min-Zeit 02:30 02:16 02:18 00:44 04:24 - - - - 06:38 00:02
Minimum _ 5,0 C 3,3 C 2,8 C 82 % 1008,1 hPa - - - - 0,0 km/h (0 Bft) 12,50 %
_ Max-Zeit 12:00 11:28 11:48 09:10 10:28 02:24 10:52 02:10 11:52 00:46 01:14
Maximum _ 10,2 C 13,9 C 8,9 C 97 % 1010,8 hPa 0,2 l/m 2 min 2 min 326 W/m 54,7 km/h
O (7 Bft)
100,00 %
Durchschnitt _ 7,1 C 6,6 C 5,6 C 88 % 1009,4 hPa #0,8 l/m #1:10 h #2:33 h 65 W/m 10,9 km/h (2 Bft) 95,53 %
© 2018 W. Hausmann